Time,TemperatureF,DewpointF,PressureIn,WindDirection,WindDirectionDegrees,WindSpeedMPH,WindSpeedGustMPH,Humidity,HourlyPrecipIn,Conditions,Clouds,dailyrainin,SoftwareType,DateUTC
2013-03-09 00:01:00,39.8,27.8,30.17,NW,315,0.0,0.0,62,0.00,,,0.15,Wunderground v.1.15,2013-03-09 05:01:00,
2013-03-09 00:02:00,39.8,27.8,30.17,NW,311,0.0,0.0,62,0.00,,,0.15,Wunderground v.1.15,2013-03-09 05:02:00,
2013-03-09 00:03:00,39.8,27.8,30.17,WNW,292,0.0,0.0,62,0.00,,,0.15,Wunderground v.1.15,2013-03-09 05:03:00,
2013-03-09 00:06:00,39.8,27.8,30.17,NW,314,0.0,0.0,62,0.00,,,0.15,Wunderground v.1.15,2013-03-09 05:06:00,
2013-03-09 00:08:00,39.6,27.6,30.17,NNW,337,0.0,0.0,62,0.00,,,0.15,Wunderground v.1.15,2013-03-09 05:08:00,
2013-03-09 00:09:00,39.6,27.6,30.17,North,355,0.0,0.0,62,0.00,,,0.15,Wunderground v.1.15,2013-03-09 05:09:00,
2013-03-09 00:12:00,39.6,27.6,30.17,NNW,342,0.0,0.0,62,0.00,,,0.15,Wunderground v.1.15,2013-03-09 05:12:00,
2013-03-09 00:13:00,39.6,27.6,30.17,NW,324,0.0,0.0,62,0.00,,,0.15,Wunderground v.1.15,2013-03-09 05:13:00,
2013-03-09 00:14:00,39.6,27.6,30.17,NW,308,0.0,0.0,62,0.00,,,0.15,Wunderground v.1.15,2013-03-09 05:14:00,
2013-03-09 00:15:00,39.6,27.6,30.17,NW,311,0.0,0.0,62,0.00,,,0.15,Wunderground v.1.15,2013-03-09 05:15:00,
2013-03-09 00:18:00,39.6,27.6,30.17,WNW,288,0.0,0.0,62,0.00,,,0.15,Wunderground v.1.15,2013-03-09 05:18:00,
2013-03-09 00:20:00,39.6,27.6,30.17,NW,309,0.0,0.0,62,0.00,,,0.15,Wunderground v.1.15,2013-03-09 05:20:00,
2013-03-09 00:22:00,39.6,27.2,30.17,NW,305,0.0,0.0,61,0.00,,,0.15,Wunderground v.1.15,2013-03-09 05:22:00,
2013-03-09 00:23:00,39.6,27.6,30.17,NW,306,0.0,0.0,62,0.00,,,0.15,Wunderground v.1.15,2013-03-09 05:23:00,
2013-03-09 00:26:00,39.5,27.2,30.17,WNW,286,0.0,0.0,61,0.00,,,0.15,Wunderground v.1.15,2013-03-09 05:26:00,
2013-03-09 00:28:00,39.5,27.5,30.17,North,350,0.0,0.0,62,0.00,,,0.15,Wunderground v.1.15,2013-03-09 05:28:00,
2013-03-09 00:29:00,39.5,27.5,30.17,WNW,296,0.0,0.0,62,0.00,,,0.15,Wunderground v.1.15,2013-03-09 05:29:00,
2013-03-09 00:31:00,39.5,27.5,30.17,WNW,302,0.0,0.0,62,0.00,,,0.15,Wunderground v.1.15,2013-03-09 05:31:00,
2013-03-09 00:34:00,39.5,27.5,30.17,North,350,0.0,0.0,62,0.00,,,0.15,Wunderground v.1.15,2013-03-09 05:34:00,
2013-03-09 00:36:00,39.3,27.4,30.17,NNW,340,0.0,0.0,62,0.00,,,0.15,Wunderground v.1.15,2013-03-09 05:36:00,
2013-03-09 00:37:00,39.3,27.4,30.17,NNW,331,0.0,0.0,62,0.00,,,0.15,Wunderground v.1.15,2013-03-09 05:37:00,
2013-03-09 00:39:00,39.3,27.4,30.17,West,279,0.0,0.0,62,0.00,,,0.15,Wunderground v.1.15,2013-03-09 05:39:00,
2013-03-09 00:41:00,39.3,27.4,30.17,NW,326,0.0,0.0,62,0.00,,,0.15,Wunderground v.1.15,2013-03-09 05:41:00,
2013-03-09 00:42:00,39.2,27.3,30.17,North,5,0.0,0.0,62,0.00,,,0.15,Wunderground v.1.15,2013-03-09 05:42:00,
2013-03-09 00:46:00,39.2,27.3,30.17,NW,316,0.0,0.0,62,0.00,,,0.15,Wunderground v.1.15,2013-03-09 05:46:00,
2013-03-09 00:48:00,39.2,26.9,30.18,NNW,338,0.0,0.0,61,0.00,,,0.15,Wunderground v.1.15,2013-03-09 05:48:00,
2013-03-09 00:50:00,39.2,27.3,30.18,NW,309,0.0,0.0,62,0.00,,,0.15,Wunderground v.1.15,2013-03-09 05:50:00,
2013-03-09 00:53:00,39.2,26.9,30.18,WNW,289,0.0,0.0,61,0.00,,,0.15,Wunderground v.1.15,2013-03-09 05:53:00,
2013-03-09 00:54:00,39.2,26.9,30.18,WNW,297,0.0,0.0,61,0.00,,,0.15,Wunderground v.1.15,2013-03-09 05:54:00,
2013-03-09 00:55:00,39.2,26.9,30.18,WNW,288,0.0,0.0,61,0.00,,,0.15,Wunderground v.1.15,2013-03-09 05:55:00,
2013-03-09 00:58:00,39.2,26.9,30.18,NW,316,0.0,0.0,61,0.00,,,0.15,Wunderground v.1.15,2013-03-09 05:58:00,
2013-03-09 00:59:00,39.2,27.3,30.18,NNW,333,0.0,0.0,62,0.00,,,0.15,Wunderground v.1.15,2013-03-09 05:59:00,
2013-03-09 01:00:00,39.1,27.2,30.18,NNW,345,0.0,0.0,62,0.00,,,0.15,Wunderground v.1.15,2013-03-09 06:00:00,
2013-03-09 01:02:00,39.1,27.2,30.18,NNW,331,0.0,0.0,62,0.00,,,0.15,Wunderground v.1.15,2013-03-09 06:02:00,
2013-03-09 01:03:00,39.1,26.8,30.18,North,360,0.0,0.0,61,0.00,,,0.15,Wunderground v.1.15,2013-03-09 06:03:00,
2013-03-09 01:05:00,39.1,26.8,30.18,NW,316,0.0,0.0,61,0.00,,,0.15,Wunderground v.1.15,2013-03-09 06:05:00,
2013-03-09 01:09:00,39.1,26.8,30.18,WNW,301,0.0,0.0,61,0.00,,,0.15,Wunderground v.1.15,2013-03-09 06:09:00,
2013-03-09 01:10:00,39.1,26.8,30.18,NW,304,0.0,0.0,61,0.00,,,0.15,Wunderground v.1.15,2013-03-09 06:10:00,
2013-03-09 01:11:00,39.1,26.8,30.18,NW,313,0.0,0.0,61,0.00,,,0.15,Wunderground v.1.15,2013-03-09 06:11:00,
2013-03-09 01:13:00,39.1,26.8,30.18,WNW,300,0.0,0.0,61,0.00,,,0.15,Wunderground v.1.15,2013-03-09 06:13:00,
2013-03-09 01:15:00,39.1,27.2,30.18,NW,314,0.0,0.0,62,0.00,,,0.15,Wunderground v.1.15,2013-03-09 06:15:00,
2013-03-09 01:16:00,39.1,27.2,30.18,NW,323,0.0,0.0,62,0.00,,,0.15,Wunderground v.1.15,2013-03-09 06:16:00,
2013-03-09 01:17:00,39.1,27.2,30.18,WNW,290,0.0,0.0,62,0.00,,,0.15,Wunderground v.1.15,2013-03-09 06:17:00,
2013-03-09 01:20:00,38.9,27.0,30.17,West,277,0.0,0.0,62,0.00,,,0.15,Wunderground v.1.15,2013-03-09 06:20:00,
2013-03-09 01:21:00,38.9,27.0,30.17,NW,321,0.0,0.0,62,0.00,,,0.15,Wunderground v.1.15,2013-03-09 06:21:00,
2013-03-09 01:24:00,38.9,26.6,30.17,WNW,292,0.0,0.0,61,0.00,,,0.15,Wunderground v.1.15,2013-03-09 06:24:00,
2013-03-09 01:28:00,38.9,26.6,30.17,NNW,337,0.0,0.0,61,0.00,,,0.15,Wunderground v.1.15,2013-03-09 06:28:00,
2013-03-09 01:29:00,38.9,26.6,30.17,WNW,288,0.0,0.0,61,0.00,,,0.15,Wunderground v.1.15,2013-03-09 06:29:00,
2013-03-09 01:30:00,38.8,26.5,30.17,NNW,330,0.0,0.0,61,0.00,,,0.15,Wunderground v.1.15,2013-03-09 06:30:00,
2013-03-09 01:31:00,38.9,26.6,30.17,WNW,298,0.0,0.0,61,0.00,,,0.15,Wunderground v.1.15,2013-03-09 06:31:00,
2013-03-09 01:36:00,38.8,26.5,30.17,NW,309,0.0,0.0,61,0.00,,,0.15,Wunderground v.1.15,2013-03-09 06:36:00,
2013-03-09 01:37:00,38.8,26.5,30.17,NW,318,0.0,0.0,61,0.00,,,0.15,Wunderground v.1.15,2013-03-09 06:37:00,
2013-03-09 01:38:00,38.8,26.5,30.17,WNW,303,0.0,0.0,61,0.00,,,0.15,Wunderground v.1.15,2013-03-09 06:38:00,
2013-03-09 01:42:00,38.8,26.5,30.17,NNW,327,0.0,0.0,61,0.00,,,0.15,Wunderground v.1.15,2013-03-09 06:42:00,
2013-03-09 01:43:00,38.8,26.5,30.17,WNW,296,0.0,0.0,61,0.00,,,0.15,Wunderground v.1.15,2013-03-09 06:43:00,
2013-03-09 01:47:00,38.8,26.5,30.17,WNW,300,0.0,0.0,61,0.00,,,0.15,Wunderground v.1.15,2013-03-09 06:47:00,
2013-03-09 01:49:00,38.6,26.7,30.17,NNW,332,0.0,0.0,62,0.00,,,0.15,Wunderground v.1.15,2013-03-09 06:49:00,
2013-03-09 01:50:00,38.6,26.7,30.17,WNW,284,0.0,0.0,62,0.00,,,0.15,Wunderground v.1.15,2013-03-09 06:50:00,
2013-03-09 01:51:00,38.6,26.7,30.17,NW,321,0.0,0.0,62,0.00,,,0.15,Wunderground v.1.15,2013-03-09 06:51:00,
2013-03-09 01:53:00,38.6,26.3,30.17,WNW,296,0.0,0.0,61,0.00,,,0.15,Wunderground v.1.15,2013-03-09 06:53:00,
2013-03-09 01:56:00,38.5,26.6,30.17,North,351,0.0,0.0,62,0.00,,,0.15,Wunderground v.1.15,2013-03-09 06:56:00,
2013-03-09 01:58:00,38.5,26.6,30.17,North,5,0.0,0.0,62,0.00,,,0.15,Wunderground v.1.15,2013-03-09 06:58:00,
2013-03-09 01:59:00,38.5,26.6,30.17,NW,321,0.0,0.0,62,0.00,,,0.15,Wunderground v.1.15,2013-03-09 06:59:00,
2013-03-09 02:02:00,38.5,26.6,30.17,NW,304,0.0,0.0,62,0.00,,,0.15,Wunderground v.1.15,2013-03-09 07:02:00,
2013-03-09 02:03:00,38.5,26.6,30.17,NW,308,0.0,0.0,62,0.00,,,0.15,Wunderground v.1.15,2013-03-09 07:03:00,
2013-03-09 02:05:00,38.5,26.6,30.17,NNW,336,0.0,0.0,62,0.00,,,0.15,Wunderground v.1.15,2013-03-09 07:05:00,
2013-03-09 02:07:00,38.3,26.4,30.17,WNW,298,0.0,0.0,62,0.00,,,0.15,Wunderground v.1.15,2013-03-09 07:07:00,
2013-03-09 02:11:00,38.3,26.4,30.17,NW,315,0.0,0.0,62,0.00,,,0.15,Wunderground v.1.15,2013-03-09 07:11:00,
2013-03-09 02:13:00,38.2,26.3,30.17,NW,306,0.0,0.0,62,0.00,,,0.15,Wunderground v.1.15,2013-03-09 07:13:00,
2013-03-09 02:14:00,38.2,26.3,30.17,West,275,0.0,0.0,62,0.00,,,0.15,Wunderground v.1.15,2013-03-09 07:14:00,
2013-03-09 02:16:00,38.2,26.3,30.17,NW,312,0.0,0.0,62,0.00,,,0.15,Wunderground v.1.15,2013-03-09 07:16:00,
2013-03-09 02:19:00,38.2,26.3,30.17,NW,308,0.0,0.0,62,0.00,,,0.15,Wunderground v.1.15,2013-03-09 07:19:00,
2013-03-09 02:20:00,38.0,26.1,30.17,NNW,338,0.0,0.0,62,0.00,,,0.15,Wunderground v.1.15,2013-03-09 07:20:00,
2013-03-09 02:22:00,38.0,26.5,30.17,WNW,303,0.0,0.0,63,0.00,,,0.15,Wunderground v.1.15,2013-03-09 07:22:00,
2013-03-09 02:23:00,38.0,26.1,30.17,NW,323,0.0,0.0,62,0.00,,,0.15,Wunderground v.1.15,2013-03-09 07:23:00,
2013-03-09 02:24:00,38.0,26.1,30.17,North,350,0.0,0.0,62,0.00,,,0.15,Wunderground v.1.15,2013-03-09 07:24:00,
2013-03-09 02:27:00,37.9,26.4,30.17,NNW,346,0.0,0.0,63,0.00,,,0.15,Wunderground v.1.15,2013-03-09 07:27:00,
2013-03-09 02:29:00,37.8,26.3,30.17,NNW,340,0.0,0.0,63,0.00,,,0.15,Wunderground v.1.15,2013-03-09 07:29:00,
2013-03-09 02:30:00,37.8,26.3,30.17,NW,324,0.0,0.0,63,0.00,,,0.15,Wunderground v.1.15,2013-03-09 07:30:00,
2013-03-09 02:34:00,37.6,26.5,30.17,NW,309,0.0,0.0,64,0.00,,,0.15,Wunderground v.1.15,2013-03-09 07:34:00,
2013-03-09 02:35:00,37.5,26.4,30.17,NW,315,0.0,0.0,64,0.00,,,0.15,Wunderground v.1.15,2013-03-09 07:35:00,
2013-03-09 02:36:00,37.5,26.4,30.17,NW,311,0.0,0.0,64,0.00,,,0.15,Wunderground v.1.15,2013-03-09 07:36:00,
2013-03-09 02:39:00,37.3,26.2,30.17,NNW,332,0.0,0.0,64,0.00,,,0.15,Wunderground v.1.15,2013-03-09 07:39:00,
2013-03-09 02:41:00,37.3,26.2,30.17,WNW,300,0.0,0.0,64,0.00,,,0.15,Wunderground v.1.15,2013-03-09 07:41:00,
2013-03-09 02:42:00,37.3,26.2,30.17,WNW,292,0.0,0.0,64,0.00,,,0.15,Wunderground v.1.15,2013-03-09 07:42:00,
2013-03-09 02:46:00,37.2,26.1,30.17,NW,314,0.0,0.0,64,0.00,,,0.15,Wunderground v.1.15,2013-03-09 07:46:00,
2013-03-09 02:47:00,37.2,26.1,30.16,NW,323,0.0,0.0,64,0.00,,,0.15,Wunderground v.1.15,2013-03-09 07:47:00,
2013-03-09 02:48:00,37.0,25.9,30.17,North,360,0.0,0.0,64,0.00,,,0.15,Wunderground v.1.15,2013-03-09 07:48:00,
2013-03-09 02:51:00,37.0,25.9,30.17,NW,317,0.0,0.0,64,0.00,,,0.15,Wunderground v.1.15,2013-03-09 07:51:00,
2013-03-09 02:52:00,37.0,25.9,30.16,West,269,0.0,0.0,64,0.00,,,0.15,Wunderground v.1.15,2013-03-09 07:52:00,
2013-03-09 02:54:00,37.0,25.9,30.17,NW,309,0.0,0.0,64,0.00,,,0.15,Wunderground v.1.15,2013-03-09 07:54:00,
2013-03-09 02:57:00,36.9,25.9,30.16,NW,313,0.0,0.0,64,0.00,,,0.15,Wunderground v.1.15,2013-03-09 07:57:00,
2013-03-09 02:58:00,36.9,26.2,30.17,NW,325,0.0,0.0,65,0.00,,,0.15,Wunderground v.1.15,2013-03-09 07:58:00,
2013-03-09 03:01:00,36.9,26.2,30.16,NNW,344,0.0,0.0,65,0.00,,,0.15,Wunderground v.1.15,2013-03-09 08:01:00,
2013-03-09 03:02:00,36.9,26.2,30.16,NW,321,0.0,0.0,65,0.00,,,0.15,Wunderground v.1.15,2013-03-09 08:02:00,
2013-03-09 03:03:00,36.9,26.2,30.16,NNW,336,0.0,0.0,65,0.00,,,0.15,Wunderground v.1.15,2013-03-09 08:03:00,
2013-03-09 03:05:00,36.8,26.1,30.16,NW,321,0.0,0.0,65,0.00,,,0.15,Wunderground v.1.15,2013-03-09 08:05:00,
2013-03-09 03:07:00,36.8,26.1,30.16,WNW,292,0.0,0.0,65,0.00,,,0.15,Wunderground v.1.15,2013-03-09 08:07:00,
2013-03-09 03:10:00,36.8,26.1,30.16,NW,317,0.0,0.0,65,0.00,,,0.15,Wunderground v.1.15,2013-03-09 08:10:00,
2013-03-09 03:12:00,36.8,26.1,30.17,NW,318,0.0,0.0,65,0.00,,,0.15,Wunderground v.1.15,2013-03-09 08:12:00,
2013-03-09 03:13:00,36.6,25.9,30.16,NW,316,0.0,0.0,65,0.00,,,0.15,Wunderground v.1.15,2013-03-09 08:13:00,
2013-03-09 03:15:00,36.6,25.9,30.16,NW,308,0.0,0.0,65,0.00,,,0.15,Wunderground v.1.15,2013-03-09 08:15:00,
2013-03-09 03:19:00,36.5,25.8,30.16,NW,314,0.0,0.0,65,0.00,,,0.15,Wunderground v.1.15,2013-03-09 08:19:00,
2013-03-09 03:21:00,36.5,26.2,30.16,NW,306,0.0,0.0,66,0.00,,,0.15,Wunderground v.1.15,2013-03-09 08:21:00,
2013-03-09 03:24:00,36.3,26.0,30.16,NW,305,0.0,0.0,66,0.00,,,0.15,Wunderground v.1.15,2013-03-09 08:24:00,
2013-03-09 03:26:00,36.3,26.0,30.16,WNW,294,0.0,0.0,66,0.00,,,0.15,Wunderground v.1.15,2013-03-09 08:26:00,
2013-03-09 03:27:00,36.3,26.0,30.16,West,263,0.0,0.0,66,0.00,,,0.15,Wunderground v.1.15,2013-03-09 08:27:00,
2013-03-09 03:32:00,36.2,25.6,30.16,WNW,298,0.0,0.0,65,0.00,,,0.15,Wunderground v.1.15,2013-03-09 08:32:00,
2013-03-09 03:34:00,36.3,25.7,30.16,NNE,30,0.0,0.0,65,0.00,,,0.15,Wunderground v.1.15,2013-03-09 08:34:00,
2013-03-09 03:35:00,36.3,25.7,30.16,NW,304,0.0,0.0,65,0.00,,,0.15,Wunderground v.1.15,2013-03-09 08:35:00,
2013-03-09 03:37:00,36.2,25.6,30.16,WNW,300,0.0,0.0,65,0.00,,,0.15,Wunderground v.1.15,2013-03-09 08:37:00,
2013-03-09 03:39:00,36.2,25.6,30.16,WNW,297,0.0,0.0,65,0.00,,,0.15,Wunderground v.1.15,2013-03-09 08:39:00,
2013-03-09 03:43:00,36.0,25.7,30.16,NNW,336,0.0,0.0,66,0.00,,,0.15,Wunderground v.1.15,2013-03-09 08:43:00,
2013-03-09 03:44:00,36.0,25.7,30.16,WNW,293,0.0,0.0,66,0.00,,,0.15,Wunderground v.1.15,2013-03-09 08:44:00,
2013-03-09 03:47:00,36.0,25.7,30.16,NW,307,0.0,0.0,66,0.00,,,0.15,Wunderground v.1.15,2013-03-09 08:47:00,
2013-03-09 03:48:00,36.0,25.7,30.16,WNW,287,0.0,0.0,66,0.00,,,0.15,Wunderground v.1.15,2013-03-09 08:48:00,
2013-03-09 03:49:00,36.0,25.7,30.16,NW,324,0.0,0.0,66,0.00,,,0.15,Wunderground v.1.15,2013-03-09 08:49:00,
2013-03-09 03:50:00,36.0,25.7,30.16,NW,317,0.0,0.0,66,0.00,,,0.15,Wunderground v.1.15,2013-03-09 08:50:00,
2013-03-09 03:53:00,36.0,25.7,30.16,North,355,0.0,0.0,66,0.00,,,0.15,Wunderground v.1.15,2013-03-09 08:53:00,
2013-03-09 03:54:00,36.0,25.7,30.16,NW,304,0.0,0.0,66,0.00,,,0.15,Wunderground v.1.15,2013-03-09 08:54:00,
2013-03-09 03:55:00,36.0,25.7,30.16,NW,320,0.0,0.0,66,0.00,,,0.15,Wunderground v.1.15,2013-03-09 08:55:00,
2013-03-09 03:56:00,36.0,25.7,30.16,North,355,0.0,0.0,66,0.00,,,0.15,Wunderground v.1.15,2013-03-09 08:56:00,
2013-03-09 04:01:00,36.0,25.7,30.17,NNW,344,0.0,0.0,66,0.00,,,0.15,Wunderground v.1.15,2013-03-09 09:01:00,
2013-03-09 04:02:00,36.0,25.4,30.17,NNW,344,0.0,0.0,65,0.00,,,0.15,Wunderground v.1.15,2013-03-09 09:02:00,
2013-03-09 04:07:00,36.0,25.4,30.17,NW,306,0.0,0.0,65,0.00,,,0.15,Wunderground v.1.15,2013-03-09 09:07:00,
2013-03-09 04:08:00,36.0,25.4,30.17,North,5,0.0,0.0,65,0.00,,,0.15,Wunderground v.1.15,2013-03-09 09:08:00,
2013-03-09 04:13:00,36.0,25.4,30.17,NNW,338,0.0,0.0,65,0.00,,,0.15,Wunderground v.1.15,2013-03-09 09:13:00,
2013-03-09 04:14:00,36.0,25.4,30.17,WNW,296,0.0,0.0,65,0.00,,,0.15,Wunderground v.1.15,2013-03-09 09:14:00,
2013-03-09 04:15:00,36.0,25.4,30.18,NNE,28,0.0,0.0,65,0.00,,,0.15,Wunderground v.1.15,2013-03-09 09:15:00,
2013-03-09 04:18:00,36.0,25.4,30.18,NW,312,0.0,0.0,65,0.00,,,0.15,Wunderground v.1.15,2013-03-09 09:18:00,
2013-03-09 04:20:00,36.0,25.4,30.18,NNW,348,0.0,0.0,65,0.00,,,0.15,Wunderground v.1.15,2013-03-09 09:20:00,
2013-03-09 04:23:00,36.0,25.4,30.18,NW,308,0.0,0.0,65,0.00,,,0.15,Wunderground v.1.15,2013-03-09 09:23:00,
2013-03-09 04:24:00,36.0,25.4,30.18,WNW,294,0.0,0.0,65,0.00,,,0.15,Wunderground v.1.15,2013-03-09 09:24:00,
2013-03-09 04:26:00,35.9,25.3,30.18,NW,319,0.0,0.0,65,0.00,,,0.15,Wunderground v.1.15,2013-03-09 09:26:00,
2013-03-09 04:28:00,35.9,25.3,30.19,NW,313,0.0,0.0,65,0.00,,,0.15,Wunderground v.1.15,2013-03-09 09:28:00,
2013-03-09 04:30:00,35.9,25.3,30.19,WNW,296,0.0,0.0,65,0.00,,,0.15,Wunderground v.1.15,2013-03-09 09:30:00,
2013-03-09 04:32:00,35.9,25.3,30.19,WNW,298,0.0,0.0,65,0.00,,,0.15,Wunderground v.1.15,2013-03-09 09:32:00,
2013-03-09 04:35:00,35.9,25.3,30.19,NNW,339,0.0,0.0,65,0.00,,,0.15,Wunderground v.1.15,2013-03-09 09:35:00,
2013-03-09 04:36:00,35.9,25.3,30.19,NW,318,0.0,0.0,65,0.00,,,0.15,Wunderground v.1.15,2013-03-09 09:36:00,
2013-03-09 04:40:00,35.9,25.3,30.19,West,266,0.0,0.0,65,0.00,,,0.15,Wunderground v.1.15,2013-03-09 09:40:00,
2013-03-09 04:41:00,35.9,25.3,30.19,WNW,300,0.0,0.0,65,0.00,,,0.15,Wunderground v.1.15,2013-03-09 09:41:00,
2013-03-09 04:43:00,35.9,25.3,30.19,NW,321,0.0,0.0,65,0.00,,,0.15,Wunderground v.1.15,2013-03-09 09:43:00,
2013-03-09 04:44:00,35.9,25.3,30.19,North,360,0.0,0.0,65,0.00,,,0.15,Wunderground v.1.15,2013-03-09 09:44:00,
2013-03-09 04:46:00,35.9,25.3,30.19,WNW,290,0.0,0.0,65,0.00,,,0.15,Wunderground v.1.15,2013-03-09 09:46:00,
2013-03-09 04:48:00,35.8,25.2,30.19,NW,306,0.0,0.0,65,0.00,,,0.15,Wunderground v.1.15,2013-03-09 09:48:00,
2013-03-09 04:50:00,35.9,25.3,30.19,NW,311,0.0,0.0,65,0.00,,,0.15,Wunderground v.1.15,2013-03-09 09:50:00,
2013-03-09 04:53:00,35.9,25.3,30.20,WNW,289,0.0,0.0,65,0.00,,,0.15,Wunderground v.1.15,2013-03-09 09:53:00,
2013-03-09 04:55:00,35.9,25.3,30.20,NW,306,0.0,0.0,65,0.00,,,0.15,Wunderground v.1.15,2013-03-09 09:55:00,
2013-03-09 04:57:00,35.9,25.3,30.20,WNW,292,0.0,0.0,65,0.00,,,0.15,Wunderground v.1.15,2013-03-09 09:57:00,
2013-03-09 04:58:00,35.9,25.3,30.20,WNW,298,0.0,0.0,65,0.00,,,0.15,Wunderground v.1.15,2013-03-09 09:58:00,
2013-03-09 05:00:00,35.9,25.3,30.20,NNW,328,0.0,0.0,65,0.00,,,0.15,Wunderground v.1.15,2013-03-09 10:00:00,
2013-03-09 05:02:00,35.8,25.2,30.20,WNW,302,0.0,0.0,65,0.00,,,0.15,Wunderground v.1.15,2013-03-09 10:02:00,
2013-03-09 05:04:00,35.8,25.2,30.20,NW,319,0.0,0.0,65,0.00,,,0.15,Wunderground v.1.15,2013-03-09 10:04:00,
2013-03-09 05:06:00,35.8,25.2,30.20,NW,306,0.0,0.0,65,0.00,,,0.15,Wunderground v.1.15,2013-03-09 10:06:00,
2013-03-09 05:07:00,35.8,25.2,30.21,NNW,331,0.0,0.0,65,0.00,,,0.15,Wunderground v.1.15,2013-03-09 10:07:00,
2013-03-09 05:10:00,35.8,25.2,30.20,NNW,327,0.0,0.0,65,0.00,,,0.15,Wunderground v.1.15,2013-03-09 10:10:00,
2013-03-09 05:12:00,35.8,25.2,30.20,NNW,332,0.0,0.0,65,0.00,,,0.15,Wunderground v.1.15,2013-03-09 10:12:00,
2013-03-09 05:13:00,35.8,25.2,30.21,NW,323,0.0,0.0,65,0.00,,,0.15,Wunderground v.1.15,2013-03-09 10:13:00,
2013-03-09 05:15:00,35.8,25.2,30.21,WNW,288,0.0,0.0,65,0.00,,,0.15,Wunderground v.1.15,2013-03-09 10:15:00,
2013-03-09 05:20:00,35.6,25.0,30.20,NW,308,0.0,0.0,65,0.00,,,0.15,Wunderground v.1.15,2013-03-09 10:20:00,
2013-03-09 05:22:00,35.5,24.9,30.21,NW,321,0.0,0.0,65,0.00,,,0.15,Wunderground v.1.15,2013-03-09 10:22:00,
2013-03-09 05:23:00,35.5,24.9,30.21,NW,320,0.0,0.0,65,0.00,,,0.15,Wunderground v.1.15,2013-03-09 10:23:00,
2013-03-09 05:25:00,35.5,24.9,30.21,NNW,344,0.0,0.0,65,0.00,,,0.15,Wunderground v.1.15,2013-03-09 10:25:00,
2013-03-09 05:28:00,35.5,24.9,30.21,WNW,290,0.0,0.0,65,0.00,,,0.15,Wunderground v.1.15,2013-03-09 10:28:00,
2013-03-09 05:30:00,35.3,24.7,30.21,NNW,327,0.0,0.0,65,0.00,,,0.15,Wunderground v.1.15,2013-03-09 10:30:00,
2013-03-09 05:34:00,35.3,24.7,30.21,NW,313,0.0,0.0,65,0.00,,,0.15,Wunderground v.1.15,2013-03-09 10:34:00,
2013-03-09 05:35:00,35.3,24.7,30.21,WNW,299,0.0,0.0,65,0.00,,,0.15,Wunderground v.1.15,2013-03-09 10:35:00,
2013-03-09 05:37:00,35.3,24.7,30.21,NW,325,0.0,0.0,65,0.00,,,0.15,Wunderground v.1.15,2013-03-09 10:37:00,
2013-03-09 05:38:00,35.3,24.7,30.21,WNW,297,0.0,0.0,65,0.00,,,0.15,Wunderground v.1.15,2013-03-09 10:38:00,
2013-03-09 05:40:00,35.3,24.7,30.21,NW,323,0.0,0.0,65,0.00,,,0.15,Wunderground v.1.15,2013-03-09 10:40:00,
2013-03-09 05:44:00,35.2,24.6,30.22,WNW,301,0.0,0.0,65,0.00,,,0.15,Wunderground v.1.15,2013-03-09 10:44:00,
2013-03-09 05:46:00,35.2,24.6,30.22,WNW,293,0.0,0.0,65,0.00,,,0.15,Wunderground v.1.15,2013-03-09 10:46:00,
2013-03-09 05:47:00,35.2,24.6,30.22,WNW,290,0.0,0.0,65,0.00,,,0.15,Wunderground v.1.15,2013-03-09 10:47:00,
2013-03-09 05:50:00,35.2,24.6,30.22,WNW,289,0.0,0.0,65,0.00,,,0.15,Wunderground v.1.15,2013-03-09 10:50:00,
2013-03-09 05:53:00,35.2,24.6,30.22,North,5,0.0,0.0,65,0.00,,,0.15,Wunderground v.1.15,2013-03-09 10:53:00,
2013-03-09 05:54:00,35.0,24.4,30.22,NW,326,0.0,0.0,65,0.00,,,0.15,Wunderground v.1.15,2013-03-09 10:54:00,
2013-03-09 05:55:00,35.0,24.4,30.22,NNW,340,0.0,0.0,65,0.00,,,0.15,Wunderground v.1.15,2013-03-09 10:55:00,
2013-03-09 05:57:00,35.0,24.4,30.22,NNW,336,0.0,0.0,65,0.00,,,0.15,Wunderground v.1.15,2013-03-09 10:57:00,
2013-03-09 06:00:00,35.0,24.4,30.22,NW,306,0.0,0.0,65,0.00,,,0.15,Wunderground v.1.15,2013-03-09 11:00:00,
2013-03-09 06:03:00,34.9,24.3,30.22,NNW,346,0.0,0.0,65,0.00,,,0.15,Wunderground v.1.15,2013-03-09 11:03:00,
2013-03-09 06:05:00,34.9,24.3,30.22,WNW,299,0.0,0.0,65,0.00,,,0.15,Wunderground v.1.15,2013-03-09 11:05:00,
2013-03-09 06:08:00,34.9,24.3,30.22,North,355,0.0,0.0,65,0.00,,,0.15,Wunderground v.1.15,2013-03-09 11:08:00,
2013-03-09 06:12:00,34.9,24.3,30.23,NNW,328,0.0,0.0,65,0.00,,,0.15,Wunderground v.1.15,2013-03-09 11:12:00,
2013-03-09 06:13:00,34.9,24.3,30.23,NNW,339,0.0,0.0,65,0.00,,,0.15,Wunderground v.1.15,2013-03-09 11:13:00,
2013-03-09 06:14:00,34.9,24.3,30.23,WNW,302,0.0,0.0,65,0.00,,,0.15,Wunderground v.1.15,2013-03-09 11:14:00,
2013-03-09 06:15:00,34.9,24.3,30.23,WNW,287,0.0,0.0,65,0.00,,,0.15,Wunderground v.1.15,2013-03-09 11:15:00,
2013-03-09 06:18:00,35.0,24.4,30.23,NNW,336,0.0,0.0,65,0.00,,,0.15,Wunderground v.1.15,2013-03-09 11:18:00,
2013-03-09 06:20:00,35.0,24.4,30.23,WNW,296,0.0,0.0,65,0.00,,,0.15,Wunderground v.1.15,2013-03-09 11:20:00,
2013-03-09 06:23:00,35.0,24.4,30.23,NNW,343,0.0,0.0,65,0.00,,,0.15,Wunderground v.1.15,2013-03-09 11:23:00,
2013-03-09 06:24:00,35.0,24.4,30.23,NW,311,0.0,0.0,65,0.00,,,0.15,Wunderground v.1.15,2013-03-09 11:24:00,
2013-03-09 06:25:00,35.0,24.4,30.23,NNW,346,0.0,0.0,65,0.00,,,0.15,Wunderground v.1.15,2013-03-09 11:25:00,
2013-03-09 06:28:00,35.0,24.0,30.23,NW,319,0.0,0.0,64,0.00,,,0.15,Wunderground v.1.15,2013-03-09 11:28:00,
2013-03-09 06:29:00,35.0,24.0,30.23,NNW,336,0.0,0.0,64,0.00,,,0.15,Wunderground v.1.15,2013-03-09 11:29:00,
2013-03-09 06:30:00,35.0,24.0,30.23,NNW,334,0.0,0.0,64,0.00,,,0.15,Wunderground v.1.15,2013-03-09 11:30:00,
2013-03-09 06:34:00,35.0,24.0,30.24,North,355,0.0,0.0,64,0.00,,,0.15,Wunderground v.1.15,2013-03-09 11:34:00,
2013-03-09 06:35:00,35.2,24.2,30.24,NW,311,0.0,0.0,64,0.00,,,0.15,Wunderground v.1.15,2013-03-09 11:35:00,
2013-03-09 06:37:00,35.2,24.2,30.23,NNW,335,0.0,0.0,64,0.00,,,0.15,Wunderground v.1.15,2013-03-09 11:37:00,
2013-03-09 06:40:00,35.2,24.2,30.24,NW,323,0.0,0.0,64,0.00,,,0.15,Wunderground v.1.15,2013-03-09 11:40:00,
2013-03-09 06:44:00,35.3,24.3,30.24,West,280,0.0,0.0,64,0.00,,,0.15,Wunderground v.1.15,2013-03-09 11:44:00,
2013-03-09 06:46:00,35.3,24.3,30.24,West,275,0.0,0.0,64,0.00,,,0.15,Wunderground v.1.15,2013-03-09 11:46:00,
2013-03-09 06:47:00,35.3,24.0,30.24,WNW,299,0.0,0.0,63,0.00,,,0.15,Wunderground v.1.15,2013-03-09 11:47:00,
2013-03-09 06:48:00,35.5,24.1,30.24,NW,313,0.0,0.0,63,0.00,,,0.15,Wunderground v.1.15,2013-03-09 11:48:00,
2013-03-09 06:51:00,35.5,24.1,30.24,North,355,0.0,0.0,63,0.00,,,0.15,Wunderground v.1.15,2013-03-09 11:51:00,
2013-03-09 06:52:00,35.5,24.1,30.24,NNW,342,0.0,0.0,63,0.00,,,0.15,Wunderground v.1.15,2013-03-09 11:52:00,
2013-03-09 06:56:00,35.6,24.2,30.24,NNW,339,0.0,0.0,63,0.00,,,0.15,Wunderground v.1.15,2013-03-09 11:56:00,
2013-03-09 06:58:00,35.8,24.0,30.24,NNW,330,0.0,0.0,62,0.00,,,0.15,Wunderground v.1.15,2013-03-09 11:58:00,
2013-03-09 06:59:00,35.8,24.0,30.24,WNW,301,0.0,0.0,62,0.00,,,0.15,Wunderground v.1.15,2013-03-09 11:59:00,
2013-03-09 07:01:00,35.8,24.0,30.24,NW,319,0.0,0.0,62,0.00,,,0.00,Wunderground v.1.15,2013-03-09 12:01:00,
2013-03-09 07:03:00,35.9,24.1,30.24,West,281,0.0,0.0,62,0.00,,,0.00,Wunderground v.1.15,2013-03-09 12:03:00,
2013-03-09 07:04:00,35.9,24.1,30.24,NNW,331,0.0,0.0,62,0.00,,,0.00,Wunderground v.1.15,2013-03-09 12:04:00,
2013-03-09 07:09:00,36.0,24.2,30.24,NNW,340,0.0,0.0,62,0.00,,,0.00,Wunderground v.1.15,2013-03-09 12:09:00,
2013-03-09 07:10:00,36.0,24.2,30.24,WNW,292,0.0,0.0,62,0.00,,,0.00,Wunderground v.1.15,2013-03-09 12:10:00,
2013-03-09 07:12:00,36.2,24.4,30.24,NW,306,0.0,0.0,62,0.00,,,0.00,Wunderground v.1.15,2013-03-09 12:12:00,
2013-03-09 07:15:00,36.3,24.1,30.24,WNW,285,0.0,0.0,61,0.00,,,0.00,Wunderground v.1.15,2013-03-09 12:15:00,
2013-03-09 07:17:00,36.3,24.1,30.24,NW,307,0.0,0.0,61,0.00,,,0.00,Wunderground v.1.15,2013-03-09 12:17:00,
2013-03-09 07:21:00,36.5,24.3,30.24,WNW,292,0.0,0.0,61,0.00,,,0.00,Wunderground v.1.15,2013-03-09 12:21:00,
2013-03-09 07:23:00,36.6,24.4,30.25,NW,307,0.0,0.0,61,0.00,,,0.00,Wunderground v.1.15,2013-03-09 12:23:00,
2013-03-09 07:24:00,36.6,24.4,30.25,West,274,0.0,0.0,61,0.00,,,0.00,Wunderground v.1.15,2013-03-09 12:24:00,
2013-03-09 07:28:00,36.6,24.0,30.25,WNW,303,0.0,0.0,60,0.00,,,0.00,Wunderground v.1.15,2013-03-09 12:28:00,
2013-03-09 07:29:00,36.8,24.2,30.24,WNW,294,0.0,0.0,60,0.00,,,0.00,Wunderground v.1.15,2013-03-09 12:29:00,
2013-03-09 07:30:00,36.8,24.2,30.24,NNW,344,0.0,0.0,60,0.00,,,0.00,Wunderground v.1.15,2013-03-09 12:30:00,
2013-03-09 07:34:00,36.9,23.9,30.25,NNW,338,0.0,0.0,59,0.00,,,0.00,Wunderground v.1.15,2013-03-09 12:34:00,
2013-03-09 07:36:00,37.0,24.0,30.25,NW,323,0.0,0.0,59,0.00,,,0.00,Wunderground v.1.15,2013-03-09 12:36:00,
2013-03-09 07:39:00,37.0,24.0,30.25,West,278,0.0,0.0,59,0.00,,,0.00,Wunderground v.1.15,2013-03-09 12:39:00,
2013-03-09 07:40:00,37.2,24.2,30.25,NW,314,0.0,0.0,59,0.00,,,0.00,Wunderground v.1.15,2013-03-09 12:40:00,
2013-03-09 07:41:00,37.2,24.2,30.25,NW,322,0.0,0.0,59,0.00,,,0.00,Wunderground v.1.15,2013-03-09 12:41:00,
2013-03-09 07:47:00,37.3,23.9,30.25,WNW,291,0.0,0.0,58,0.00,,,0.00,Wunderground v.1.15,2013-03-09 12:47:00,
2013-03-09 07:48:00,37.5,24.1,30.25,NW,320,0.0,0.0,58,0.00,,,0.00,Wunderground v.1.15,2013-03-09 12:48:00,
2013-03-09 07:52:00,37.6,24.1,30.25,NNW,340,0.0,0.0,58,0.00,,,0.00,Wunderground v.1.15,2013-03-09 12:52:00,
2013-03-09 07:53:00,37.6,24.1,30.25,NW,305,0.0,0.0,58,0.00,,,0.00,Wunderground v.1.15,2013-03-09 12:53:00,
2013-03-09 07:55:00,37.6,24.1,30.25,WNW,302,0.0,0.0,58,0.00,,,0.00,Wunderground v.1.15,2013-03-09 12:55:00,
2013-03-09 07:59:00,37.8,23.9,30.25,WNW,284,0.0,0.0,57,0.00,,,0.00,Wunderground v.1.15,2013-03-09 12:59:00,
2013-03-09 08:00:00,37.8,23.9,30.25,WNW,302,0.0,0.0,57,0.00,,,0.00,Wunderground v.1.15,2013-03-09 13:00:00,
2013-03-09 08:02:00,37.9,23.6,30.25,NW,323,0.0,0.0,56,0.00,,,0.00,Wunderground v.1.15,2013-03-09 13:02:00,
2013-03-09 08:04:00,38.0,23.7,30.25,NNW,342,0.0,0.0,56,0.00,,,0.00,Wunderground v.1.15,2013-03-09 13:04:00,
2013-03-09 08:07:00,38.0,23.7,30.25,NNW,340,0.0,0.0,56,0.00,,,0.00,Wunderground v.1.15,2013-03-09 13:07:00,
2013-03-09 08:09:00,38.2,24.3,30.25,NNE,29,0.0,0.0,57,0.00,,,0.00,Wunderground v.1.15,2013-03-09 13:09:00,
2013-03-09 08:11:00,38.3,24.0,30.25,NNW,328,0.0,0.0,56,0.00,,,0.00,Wunderground v.1.15,2013-03-09 13:11:00,
2013-03-09 08:12:00,38.5,24.1,30.25,WNW,299,0.0,0.0,56,0.00,,,0.00,Wunderground v.1.15,2013-03-09 13:12:00,
2013-03-09 08:16:00,38.6,24.2,30.25,NW,304,0.0,0.0,56,0.00,,,0.00,Wunderground v.1.15,2013-03-09 13:16:00,
2013-03-09 08:17:00,38.6,24.2,30.25,North,11,0.0,0.0,56,0.00,,,0.00,Wunderground v.1.15,2013-03-09 13:17:00,
2013-03-09 08:20:00,38.8,24.4,30.25,NNW,348,0.0,0.0,56,0.00,,,0.00,Wunderground v.1.15,2013-03-09 13:20:00,
2013-03-09 08:22:00,38.8,24.4,30.25,NW,315,0.0,0.0,56,0.00,,,0.00,Wunderground v.1.15,2013-03-09 13:22:00,
2013-03-09 08:23:00,38.8,24.0,30.24,NNW,332,0.0,0.0,55,0.00,,,0.00,Wunderground v.1.15,2013-03-09 13:23:00,
2013-03-09 08:24:00,38.8,24.0,30.25,WNW,292,0.0,0.0,55,0.00,,,0.00,Wunderground v.1.15,2013-03-09 13:24:00,
2013-03-09 08:25:00,38.9,24.1,30.25,NNW,339,0.0,0.0,55,0.00,,,0.00,Wunderground v.1.15,2013-03-09 13:25:00,
2013-03-09 08:30:00,39.2,24.4,30.25,WNW,285,0.0,0.0,55,0.00,,,0.00,Wunderground v.1.15,2013-03-09 13:30:00,
2013-03-09 08:31:00,39.2,24.4,30.25,WNW,294,0.0,0.0,55,0.00,,,0.00,Wunderground v.1.15,2013-03-09 13:31:00,
2013-03-09 08:32:00,39.3,24.5,30.25,NW,324,0.0,0.0,55,0.00,,,0.00,Wunderground v.1.15,2013-03-09 13:32:00,
2013-03-09 08:37:00,39.8,24.0,30.25,NW,322,0.0,0.0,53,0.00,,,0.00,Wunderground v.1.15,2013-03-09 13:37:00,
2013-03-09 08:38:00,39.8,24.5,30.25,NNW,332,0.0,0.0,54,0.00,,,0.00,Wunderground v.1.15,2013-03-09 13:38:00,
2013-03-09 08:41:00,40.1,24.8,30.25,NNW,342,0.0,0.0,54,0.00,,,0.00,Wunderground v.1.15,2013-03-09 13:41:00,
2013-03-09 08:43:00,40.2,24.4,30.25,NNE,22,0.0,0.0,53,0.00,,,0.00,Wunderground v.1.15,2013-03-09 13:43:00,
2013-03-09 08:44:00,40.3,25.0,30.25,NNW,342,0.0,0.0,54,0.00,,,0.00,Wunderground v.1.15,2013-03-09 13:44:00,
2013-03-09 08:46:00,40.6,24.8,30.25,NNW,348,0.0,0.0,53,0.00,,,0.00,Wunderground v.1.15,2013-03-09 13:46:00,
2013-03-09 08:51:00,40.8,24.5,30.25,NNW,327,0.0,0.0,52,0.00,,,0.00,Wunderground v.1.15,2013-03-09 13:51:00,
2013-03-09 08:52:00,40.8,24.5,30.25,NNW,344,0.0,0.0,52,0.00,,,0.00,Wunderground v.1.15,2013-03-09 13:52:00,
2013-03-09 08:55:00,41.1,24.3,30.25,North,9,0.0,0.0,51,0.00,,,0.00,Wunderground v.1.15,2013-03-09 13:55:00,
2013-03-09 08:57:00,41.1,24.3,30.25,NNW,328,0.0,0.0,51,0.00,,,0.00,Wunderground v.1.15,2013-03-09 13:57:00,
2013-03-09 08:58:00,41.2,24.4,30.25,WNW,303,0.0,0.0,51,0.00,,,0.00,Wunderground v.1.15,2013-03-09 13:58:00,
2013-03-09 09:00:00,41.3,24.0,30.25,West,279,0.0,0.0,50,0.00,,,0.00,Wunderground v.1.15,2013-03-09 14:00:00,
2013-03-09 09:03:00,41.5,23.7,30.25,NNW,346,0.0,0.0,49,0.00,,,0.00,Wunderground v.1.15,2013-03-09 14:03:00,
2013-03-09 09:04:00,41.5,23.7,30.25,NW,313,0.0,0.0,49,0.00,,,0.00,Wunderground v.1.15,2013-03-09 14:04:00,
2013-03-09 09:05:00,41.5,24.2,30.25,NNW,332,0.0,0.0,50,0.00,,,0.00,Wunderground v.1.15,2013-03-09 14:05:00,
2013-03-09 09:08:00,41.6,23.8,30.25,NW,319,0.0,0.0,49,0.00,,,0.00,Wunderground v.1.15,2013-03-09 14:08:00,
2013-03-09 09:10:00,41.6,23.8,30.26,NNE,24,0.0,0.0,49,0.00,,,0.00,Wunderground v.1.15,2013-03-09 14:10:00,
2013-03-09 09:11:00,41.8,24.0,30.26,North,355,0.0,0.0,49,0.00,,,0.00,Wunderground v.1.15,2013-03-09 14:11:00,
2013-03-09 09:12:00,41.8,24.0,30.26,West,281,0.0,0.0,49,0.00,,,0.00,Wunderground v.1.15,2013-03-09 14:12:00,
2013-03-09 09:15:00,42.2,24.4,30.26,NW,317,0.0,0.0,49,0.00,,,0.00,Wunderground v.1.15,2013-03-09 14:15:00,
2013-03-09 09:16:00,42.3,24.5,30.26,NNW,331,0.0,0.0,49,0.00,,,0.00,Wunderground v.1.15,2013-03-09 14:16:00,
2013-03-09 09:20:00,42.6,23.2,30.26,ENE,57,0.0,0.0,46,0.00,,,0.00,Wunderground v.1.15,2013-03-09 14:20:00,
2013-03-09 09:21:00,42.6,23.2,30.26,NNW,346,0.0,0.0,46,0.00,,,0.00,Wunderground v.1.15,2013-03-09 14:21:00,
2013-03-09 09:23:00,42.8,23.9,30.26,North,5,0.0,0.0,47,0.00,,,0.00,Wunderground v.1.15,2013-03-09 14:23:00,
2013-03-09 09:25:00,42.9,24.0,30.26,NNE,31,0.0,0.0,47,0.00,,,0.00,Wunderground v.1.15,2013-03-09 14:25:00,
2013-03-09 09:28:00,43.1,24.2,30.26,NE,37,0.0,0.0,47,0.00,,,0.00,Wunderground v.1.15,2013-03-09 14:28:00,
2013-03-09 09:29:00,43.2,23.8,30.26,WNW,289,0.0,0.0,46,0.00,,,0.00,Wunderground v.1.15,2013-03-09 14:29:00,
2013-03-09 09:34:00,43.3,23.4,30.26,WNW,284,0.0,0.0,45,0.00,,,0.00,Wunderground v.1.15,2013-03-09 14:34:00,
2013-03-09 09:36:00,43.5,23.5,30.26,North,360,0.0,0.0,45,0.00,,,0.00,Wunderground v.1.15,2013-03-09 14:36:00,
2013-03-09 09:37:00,43.5,23.0,30.26,North,350,0.0,0.0,44,0.00,,,0.00,Wunderground v.1.15,2013-03-09 14:37:00,
2013-03-09 09:41:00,43.8,23.3,30.26,NNE,30,0.0,0.0,44,0.00,,,0.00,Wunderground v.1.15,2013-03-09 14:41:00,
2013-03-09 09:42:00,43.9,23.4,30.26,NNE,32,0.0,0.0,44,0.00,,,0.00,Wunderground v.1.15,2013-03-09 14:42:00,
2013-03-09 09:43:00,44.1,23.6,30.26,NNW,344,0.0,0.0,44,0.00,,,0.00,Wunderground v.1.15,2013-03-09 14:43:00,
2013-03-09 09:46:00,44.2,22.5,30.26,NNE,14,0.0,0.0,42,0.00,,,0.00,Wunderground v.1.15,2013-03-09 14:46:00,
2013-03-09 09:48:00,44.5,23.9,30.26,NNW,343,0.0,0.0,44,0.00,,,0.00,Wunderground v.1.15,2013-03-09 14:48:00,
2013-03-09 09:49:00,44.5,23.4,30.26,WNW,295,0.0,0.0,43,0.00,,,0.00,Wunderground v.1.15,2013-03-09 14:49:00,
2013-03-09 09:51:00,44.6,23.5,30.26,NNE,17,0.0,0.0,43,0.00,,,0.00,Wunderground v.1.15,2013-03-09 14:51:00,
2013-03-09 09:53:00,44.8,23.6,30.26,NW,319,0.0,0.0,43,0.00,,,0.00,Wunderground v.1.15,2013-03-09 14:53:00,
2013-03-09 09:56:00,44.8,23.6,30.26,North,355,0.0,0.0,43,0.00,,,0.00,Wunderground v.1.15,2013-03-09 14:56:00,
2013-03-09 09:57:00,44.8,23.6,30.26,West,277,0.0,0.0,43,0.00,,,0.00,Wunderground v.1.15,2013-03-09 14:57:00,
2013-03-09 09:58:00,44.6,22.9,30.26,WNW,298,0.0,0.0,42,0.00,,,0.00,Wunderground v.1.15,2013-03-09 14:58:00,
2013-03-09 10:02:00,44.9,23.7,30.26,NE,35,0.0,0.0,43,0.00,,,0.00,Wunderground v.1.15,2013-03-09 15:02:00,
2013-03-09 10:03:00,45.1,23.9,30.26,NNE,26,0.0,0.0,43,0.00,,,0.00,Wunderground v.1.15,2013-03-09 15:03:00,
2013-03-09 10:05:00,45.4,23.6,30.26,NNE,19,0.0,0.0,42,0.00,,,0.00,Wunderground v.1.15,2013-03-09 15:05:00,
2013-03-09 10:08:00,45.7,23.3,30.26,WNW,301,0.0,0.0,41,0.00,,,0.00,Wunderground v.1.15,2013-03-09 15:08:00,
2013-03-09 10:09:00,45.7,22.7,30.26,NW,307,0.0,0.0,40,0.00,,,0.00,Wunderground v.1.15,2013-03-09 15:09:00,
2013-03-09 10:11:00,45.7,22.7,30.26,NNE,28,0.0,0.0,40,0.00,,,0.00,Wunderground v.1.15,2013-03-09 15:11:00,
2013-03-09 10:12:00,45.5,22.5,30.26,WNW,294,0.0,0.0,40,0.00,,,0.00,Wunderground v.1.15,2013-03-09 15:12:00,
2013-03-09 10:16:00,45.5,22.5,30.26,WNW,294,0.0,0.0,40,0.00,,,0.00,Wunderground v.1.15,2013-03-09 15:16:00,
2013-03-09 10:17:00,45.7,22.7,30.27,WNW,301,0.0,0.0,40,0.00,,,0.00,Wunderground v.1.15,2013-03-09 15:17:00,
2013-03-09 10:18:00,45.7,22.7,30.26,NW,314,0.0,0.0,40,0.00,,,0.00,Wunderground v.1.15,2013-03-09 15:18:00,
2013-03-09 10:22:00,45.5,21.3,30.26,NNW,348,0.0,0.0,38,0.00,,,0.00,Wunderground v.1.15,2013-03-09 15:22:00,
2013-03-09 10:24:00,45.7,22.1,30.26,West,277,0.0,0.0,39,0.00,,,0.00,Wunderground v.1.15,2013-03-09 15:24:00,
2013-03-09 10:28:00,46.0,23.0,30.26,North,5,0.0,0.0,40,0.00,,,0.00,Wunderground v.1.15,2013-03-09 15:28:00,
2013-03-09 10:29:00,46.0,23.0,30.27,North,360,0.0,0.0,40,0.00,,,0.00,Wunderground v.1.15,2013-03-09 15:29:00,
2013-03-09 10:30:00,46.0,23.6,30.27,NNW,339,0.0,0.0,41,0.00,,,0.00,Wunderground v.1.15,2013-03-09 15:30:00,
2013-03-09 10:32:00,46.1,22.5,30.26,WNW,300,0.0,0.0,39,0.00,,,0.00,Wunderground v.1.15,2013-03-09 15:32:00,
2013-03-09 10:35:00,46.2,23.8,30.26,NE,39,0.0,0.0,41,0.00,,,0.00,Wunderground v.1.15,2013-03-09 15:35:00,
2013-03-09 10:37:00,46.4,23.4,30.26,West,274,0.0,0.0,40,0.00,,,0.00,Wunderground v.1.15,2013-03-09 15:37:00,
2013-03-09 10:40:00,46.4,23.4,30.26,West,275,0.0,0.0,40,0.00,,,0.00,Wunderground v.1.15,2013-03-09 15:40:00,
2013-03-09 10:42:00,46.1,21.9,30.27,North,10,0.0,0.0,38,0.00,,,0.00,Wunderground v.1.15,2013-03-09 15:42:00,
2013-03-09 10:43:00,46.0,21.8,30.26,NNW,327,0.0,0.0,38,0.00,,,0.00,Wunderground v.1.15,2013-03-09 15:43:00,
2013-03-09 10:44:00,46.0,21.8,30.26,NNW,344,0.0,0.0,38,0.00,,,0.00,Wunderground v.1.15,2013-03-09 15:44:00,
2013-03-09 10:48:00,46.1,21.9,30.26,NW,325,0.0,0.0,38,0.00,,,0.00,Wunderground v.1.15,2013-03-09 15:48:00,
2013-03-09 10:49:00,46.1,22.5,30.26,WNW,298,0.0,0.0,39,0.00,,,0.00,Wunderground v.1.15,2013-03-09 15:49:00,
2013-03-09 10:51:00,46.5,23.4,30.26,NW,304,0.0,0.0,40,0.00,,,0.00,Wunderground v.1.15,2013-03-09 15:51:00,
2013-03-09 10:52:00,46.7,23.0,30.26,NE,46,0.0,0.0,39,0.00,,,0.00,Wunderground v.1.15,2013-03-09 15:52:00,
2013-03-09 10:54:00,46.8,21.9,30.26,NNW,347,0.0,0.0,37,0.00,,,0.00,Wunderground v.1.15,2013-03-09 15:54:00,
2013-03-09 10:57:00,47.0,22.7,30.26,North,5,0.0,0.0,38,0.00,,,0.00,Wunderground v.1.15,2013-03-09 15:57:00,
2013-03-09 10:58:00,47.0,22.7,30.26,NE,39,0.0,0.0,38,0.00,,,0.00,Wunderground v.1.15,2013-03-09 15:58:00,
2013-03-09 10:59:00,47.1,22.8,30.26,North,5,0.0,0.0,38,0.00,,,0.00,Wunderground v.1.15,2013-03-09 15:59:00,
2013-03-09 11:00:00,47.0,22.7,30.26,NNE,24,0.0,0.0,38,0.00,,,0.00,Wunderground v.1.15,2013-03-09 16:00:00,
2013-03-09 11:03:00,47.1,22.1,30.26,WNW,302,0.0,0.0,37,0.00,,,0.00,Wunderground v.1.15,2013-03-09 16:03:00,
2013-03-09 11:04:00,47.3,21.7,30.26,NE,42,0.0,0.0,36,0.00,,,0.00,Wunderground v.1.15,2013-03-09 16:04:00,
2013-03-09 11:08:00,47.3,22.3,30.26,West,275,0.0,0.0,37,0.00,,,0.00,Wunderground v.1.15,2013-03-09 16:08:00,
2013-03-09 11:09:00,47.3,22.3,30.26,WNW,290,0.0,0.0,37,0.00,,,0.00,Wunderground v.1.15,2013-03-09 16:09:00,
2013-03-09 11:10:00,47.3,22.9,30.26,WNW,302,0.0,0.0,38,0.00,,,0.00,Wunderground v.1.15,2013-03-09 16:10:00,
2013-03-09 11:13:00,47.3,22.9,30.26,NW,319,0.0,0.0,38,0.00,,,0.00,Wunderground v.1.15,2013-03-09 16:13:00,
2013-03-09 11:14:00,47.3,22.9,30.26,NW,319,0.0,0.0,38,0.00,,,0.00,Wunderground v.1.15,2013-03-09 16:14:00,
2013-03-09 11:15:00,47.4,21.7,30.26,NW,321,0.0,0.0,36,0.00,,,0.00,Wunderground v.1.15,2013-03-09 16:15:00,
2013-03-09 11:17:00,47.4,22.4,30.26,WNW,295,0.0,0.0,37,0.00,,,0.00,Wunderground v.1.15,2013-03-09 16:17:00,
2013-03-09 11:19:00,47.4,21.1,30.26,WNW,288,0.0,0.0,35,0.00,,,0.00,Wunderground v.1.15,2013-03-09 16:19:00,
2013-03-09 11:22:00,47.4,21.7,30.26,NNE,29,0.0,0.0,36,0.00,,,0.00,Wunderground v.1.15,2013-03-09 16:22:00,
2013-03-09 11:24:00,47.6,21.9,30.26,North,360,0.0,0.0,36,0.00,,,0.00,Wunderground v.1.15,2013-03-09 16:24:00,
2013-03-09 11:25:00,47.6,21.3,30.26,NNW,339,0.0,0.0,35,0.00,,,0.00,Wunderground v.1.15,2013-03-09 16:25:00,
2013-03-09 11:26:00,47.4,21.1,30.26,WNW,294,0.0,0.0,35,0.00,,,0.00,Wunderground v.1.15,2013-03-09 16:26:00,
2013-03-09 11:29:00,47.6,20.6,30.26,NNW,342,0.0,0.0,34,0.00,,,0.00,Wunderground v.1.15,2013-03-09 16:29:00,
2013-03-09 11:30:00,47.6,21.3,30.26,NNW,348,0.0,0.0,35,0.00,,,0.00,Wunderground v.1.15,2013-03-09 16:30:00,
2013-03-09 11:33:00,47.7,22.0,30.26,NW,312,0.0,0.0,36,0.00,,,0.00,Wunderground v.1.15,2013-03-09 16:33:00,
2013-03-09 11:34:00,47.9,22.8,30.26,NE,37,0.0,0.0,37,0.00,,,0.00,Wunderground v.1.15,2013-03-09 16:34:00,
2013-03-09 11:35:00,48.0,22.3,30.26,North,5,0.0,0.0,36,0.00,,,0.00,Wunderground v.1.15,2013-03-09 16:35:00,
2013-03-09 11:36:00,48.2,22.5,30.26,North,5,0.0,0.0,36,0.00,,,0.00,Wunderground v.1.15,2013-03-09 16:36:00,
2013-03-09 11:40:00,48.6,22.1,30.26,NW,304,0.0,0.0,35,0.00,,,0.00,Wunderground v.1.15,2013-03-09 16:40:00,
2013-03-09 11:42:00,48.8,22.3,30.26,NNW,328,0.0,0.0,35,0.00,,,0.00,Wunderground v.1.15,2013-03-09 16:42:00,
2013-03-09 11:44:00,48.8,21.6,30.26,NW,315,0.0,0.0,34,0.00,,,0.00,Wunderground v.1.15,2013-03-09 16:44:00,
2013-03-09 11:45:00,48.9,22.4,30.26,WNW,300,0.0,0.0,35,0.00,,,0.00,Wunderground v.1.15,2013-03-09 16:45:00,
2013-03-09 11:46:00,48.9,22.4,30.26,NNW,337,0.0,0.0,35,0.00,,,0.00,Wunderground v.1.15,2013-03-09 16:46:00,
2013-03-09 11:51:00,49.4,20.7,30.26,NNW,336,0.0,0.0,32,0.00,,,0.00,Wunderground v.1.15,2013-03-09 16:51:00,
2013-03-09 11:52:00,49.4,20.0,30.26,NNE,32,0.0,0.0,31,0.00,,,0.00,Wunderground v.1.15,2013-03-09 16:52:00,
2013-03-09 11:54:00,49.5,22.3,30.26,NE,54,0.0,0.0,34,0.00,,,0.00,Wunderground v.1.15,2013-03-09 16:54:00,
2013-03-09 11:57:00,49.5,20.8,30.26,NNE,26,0.0,0.0,32,0.00,,,0.00,Wunderground v.1.15,2013-03-09 16:57:00,
2013-03-09 11:59:00,49.4,20.7,30.26,NNE,32,0.0,0.0,32,0.00,,,0.00,Wunderground v.1.15,2013-03-09 16:59:00,
2013-03-09 12:02:00,49.5,20.8,30.26,NNW,341,0.0,0.0,32,0.00,,,0.00,Wunderground v.1.15,2013-03-09 17:02:00,
2013-03-09 12:03:00,49.6,21.6,30.26,NNE,14,0.0,0.0,33,0.00,,,0.00,Wunderground v.1.15,2013-03-09 17:03:00,
2013-03-09 12:04:00,49.8,21.1,30.26,NNW,331,0.0,0.0,32,0.00,,,0.00,Wunderground v.1.15,2013-03-09 17:04:00,
2013-03-09 12:07:00,50.1,21.3,30.26,West,276,0.0,0.0,32,0.00,,,0.00,Wunderground v.1.15,2013-03-09 17:07:00,
2013-03-09 12:08:00,50.1,21.3,30.26,WNW,296,0.0,0.0,32,0.00,,,0.00,Wunderground v.1.15,2013-03-09 17:08:00,
2013-03-09 12:13:00,50.2,21.4,30.26,NW,308,0.0,0.0,32,0.00,,,0.00,Wunderground v.1.15,2013-03-09 17:13:00,
2013-03-09 12:14:00,50.1,20.6,30.26,WNW,296,0.0,0.0,31,0.00,,,0.00,Wunderground v.1.15,2013-03-09 17:14:00,
2013-03-09 12:16:00,49.9,20.4,30.26,NW,313,0.0,0.0,31,0.00,,,0.00,Wunderground v.1.15,2013-03-09 17:16:00,
2013-03-09 12:18:00,50.1,21.3,30.26,WNW,285,0.0,0.0,32,0.00,,,0.00,Wunderground v.1.15,2013-03-09 17:18:00,
2013-03-09 12:19:00,50.2,21.4,30.26,NNW,341,0.0,0.0,32,0.00,,,0.00,Wunderground v.1.15,2013-03-09 17:19:00,
2013-03-09 12:20:00,50.2,19.1,30.26,West,274,0.0,0.0,29,0.00,,,0.00,Wunderground v.1.15,2013-03-09 17:20:00,
2013-03-09 12:24:00,50.5,22.4,30.26,North,10,0.0,0.0,33,0.00,,,0.00,Wunderground v.1.15,2013-03-09 17:24:00,
2013-03-09 12:25:00,50.7,21.9,30.26,NW,306,0.0,0.0,32,0.00,,,0.00,Wunderground v.1.15,2013-03-09 17:25:00,
2013-03-09 12:28:00,51.3,21.6,30.26,NW,305,0.0,0.0,31,0.00,,,0.00,Wunderground v.1.15,2013-03-09 17:28:00,
2013-03-09 12:31:00,51.3,21.6,30.25,NW,324,0.0,0.0,31,0.00,,,0.00,Wunderground v.1.15,2013-03-09 17:31:00,
2013-03-09 12:33:00,51.1,22.2,30.25,WNW,294,0.0,0.0,32,0.00,,,0.00,Wunderground v.1.15,2013-03-09 17:33:00,
2013-03-09 12:36:00,51.1,21.5,30.25,WNW,282,0.0,0.0,31,0.00,,,0.00,Wunderground v.1.15,2013-03-09 17:36:00,
2013-03-09 12:38:00,51.0,22.1,30.25,NNW,335,0.0,0.0,32,0.00,,,0.00,Wunderground v.1.15,2013-03-09 17:38:00,
2013-03-09 12:41:00,51.1,21.5,30.25,NW,304,0.0,0.0,31,0.00,,,0.00,Wunderground v.1.15,2013-03-09 17:41:00,
2013-03-09 12:44:00,51.3,22.4,30.25,NE,40,0.0,0.0,32,0.00,,,0.00,Wunderground v.1.15,2013-03-09 17:44:00,
2013-03-09 12:45:00,51.3,20.9,30.25,NE,46,0.0,0.0,30,0.00,,,0.00,Wunderground v.1.15,2013-03-09 17:45:00,
2013-03-09 12:46:00,51.3,21.6,30.25,WNW,288,0.0,0.0,31,0.00,,,0.00,Wunderground v.1.15,2013-03-09 17:46:00,
2013-03-09 12:49:00,51.3,20.1,30.25,WNW,299,0.0,0.0,29,0.00,,,0.00,Wunderground v.1.15,2013-03-09 17:49:00,
2013-03-09 12:51:00,51.4,22.5,30.24,North,351,0.0,0.0,32,0.00,,,0.00,Wunderground v.1.15,2013-03-09 17:51:00,
2013-03-09 12:52:00,51.6,21.9,30.25,WNW,289,0.0,0.0,31,0.00,,,0.00,Wunderground v.1.15,2013-03-09 17:52:00,
2013-03-09 12:56:00,52.0,21.5,30.24,NW,323,0.0,0.0,30,0.00,,,0.00,Wunderground v.1.15,2013-03-09 17:56:00,
2013-03-09 12:57:00,52.2,21.7,30.24,NNW,327,0.0,0.0,30,0.00,,,0.00,Wunderground v.1.15,2013-03-09 17:57:00,
2013-03-09 12:58:00,52.3,20.1,30.24,NW,323,0.0,0.0,28,0.00,,,0.00,Wunderground v.1.15,2013-03-09 17:58:00,
2013-03-09 13:03:00,52.5,21.1,30.24,West,281,0.0,0.0,29,0.00,,,0.00,Wunderground v.1.15,2013-03-09 18:03:00,
2013-03-09 13:04:00,52.5,21.1,30.24,WNW,286,0.0,0.0,29,0.00,,,0.00,Wunderground v.1.15,2013-03-09 18:04:00,
2013-03-09 13:05:00,52.3,20.1,30.23,WNW,290,0.0,0.0,28,0.00,,,0.00,Wunderground v.1.15,2013-03-09 18:05:00,
2013-03-09 13:08:00,52.3,20.9,30.23,NNE,26,0.0,0.0,29,0.00,,,0.00,Wunderground v.1.15,2013-03-09 18:08:00,
2013-03-09 13:09:00,52.5,21.1,30.23,NNE,17,0.0,0.0,29,0.00,,,0.00,Wunderground v.1.15,2013-03-09 18:09:00,
2013-03-09 13:12:00,52.8,20.5,30.23,NNE,19,0.0,0.0,28,0.00,,,0.00,Wunderground v.1.15,2013-03-09 18:12:00,
2013-03-09 13:14:00,53.1,20.8,30.23,North,360,0.0,0.0,28,0.00,,,0.00,Wunderground v.1.15,2013-03-09 18:14:00,
2013-03-09 13:15:00,53.1,20.8,30.23,NE,37,0.0,0.0,28,0.00,,,0.00,Wunderground v.1.15,2013-03-09 18:15:00,
2013-03-09 13:16:00,53.2,21.7,30.23,NNW,342,0.0,0.0,29,0.00,,,0.00,Wunderground v.1.15,2013-03-09 18:16:00,
2013-03-09 13:20:00,53.1,19.1,30.23,WNW,292,0.0,0.0,26,0.00,,,0.00,Wunderground v.1.15,2013-03-09 18:20:00,
2013-03-09 13:21:00,52.9,19.8,30.23,NNW,338,0.0,0.0,27,0.00,,,0.00,Wunderground v.1.15,2013-03-09 18:21:00,
2013-03-09 13:22:00,52.8,19.7,30.22,North,351,0.0,0.0,27,0.00,,,0.00,Wunderground v.1.15,2013-03-09 18:22:00,
2013-03-09 13:26:00,52.6,21.2,30.22,NNW,332,0.0,0.0,29,0.00,,,0.00,Wunderground v.1.15,2013-03-09 18:26:00,
2013-03-09 13:27:00,52.6,20.4,30.22,NW,325,0.0,0.0,28,0.00,,,0.00,Wunderground v.1.15,2013-03-09 18:27:00,
2013-03-09 13:29:00,52.6,19.5,30.22,NW,304,0.0,0.0,27,0.00,,,0.00,Wunderground v.1.15,2013-03-09 18:29:00,
2013-03-09 13:30:00,52.8,20.5,30.22,NW,321,0.0,0.0,28,0.00,,,0.00,Wunderground v.1.15,2013-03-09 18:30:00,
2013-03-09 13:33:00,53.2,20.9,30.22,NW,318,0.0,0.0,28,0.00,,,0.00,Wunderground v.1.15,2013-03-09 18:33:00,
2013-03-09 13:35:00,53.5,20.3,30.22,West,277,0.0,0.0,27,0.00,,,0.00,Wunderground v.1.15,2013-03-09 18:35:00,
2013-03-09 13:38:00,53.5,21.2,30.22,NNW,329,0.0,0.0,28,0.00,,,0.00,Wunderground v.1.15,2013-03-09 18:38:00,
2013-03-09 13:39:00,53.5,21.2,30.22,North,355,0.0,0.0,28,0.00,,,0.00,Wunderground v.1.15,2013-03-09 18:39:00,
2013-03-09 13:40:00,53.6,19.5,30.22,WNW,284,0.0,0.0,26,0.00,,,0.00,Wunderground v.1.15,2013-03-09 18:40:00,
2013-03-09 13:43:00,53.8,19.7,30.22,NNE,19,0.0,0.0,26,0.00,,,0.00,Wunderground v.1.15,2013-03-09 18:43:00,
2013-03-09 13:45:00,53.8,19.7,30.22,North,350,0.0,0.0,26,0.00,,,0.00,Wunderground v.1.15,2013-03-09 18:45:00,
2013-03-09 13:46:00,53.8,19.7,30.22,WNW,294,0.0,0.0,26,0.00,,,0.00,Wunderground v.1.15,2013-03-09 18:46:00,
2013-03-09 13:49:00,53.9,20.6,30.22,NNE,15,0.0,0.0,27,0.00,,,0.00,Wunderground v.1.15,2013-03-09 18:49:00,
2013-03-09 13:50:00,54.2,21.8,30.22,North,350,0.0,0.0,28,0.00,,,0.00,Wunderground v.1.15,2013-03-09 18:50:00,
2013-03-09 13:51:00,54.2,20.0,30.22,NNE,31,0.0,0.0,26,0.00,,,0.00,Wunderground v.1.15,2013-03-09 18:51:00,
2013-03-09 13:54:00,54.4,19.3,30.22,NW,305,0.0,0.0,25,0.00,,,0.00,Wunderground v.1.15,2013-03-09 18:54:00,
2013-03-09 13:55:00,54.4,20.2,30.22,NW,322,0.0,0.0,26,0.00,,,0.00,Wunderground v.1.15,2013-03-09 18:55:00,
2013-03-09 13:56:00,54.4,19.3,30.22,NW,323,0.0,0.0,25,0.00,,,0.00,Wunderground v.1.15,2013-03-09 18:56:00,
2013-03-09 13:58:00,54.4,18.3,30.22,NE,49,0.0,0.0,24,0.00,,,0.00,Wunderground v.1.15,2013-03-09 18:58:00,
2013-03-09 13:59:00,54.4,20.2,30.22,North,10,0.0,0.0,26,0.00,,,0.00,Wunderground v.1.15,2013-03-09 18:59:00,
2013-03-09 14:04:00,54.7,17.6,30.22,NNW,340,0.0,0.0,23,0.00,,,0.00,Wunderground v.1.15,2013-03-09 19:04:00,
2013-03-09 14:07:00,54.8,19.6,30.22,NE,37,0.0,0.0,25,0.00,,,0.00,Wunderground v.1.15,2013-03-09 19:07:00,
2013-03-09 14:08:00,55.0,19.8,30.22,WNW,294,0.0,0.0,25,0.00,,,0.00,Wunderground v.1.15,2013-03-09 19:08:00,
2013-03-09 14:09:00,55.0,19.8,30.22,WNW,290,0.0,0.0,25,0.00,,,0.00,Wunderground v.1.15,2013-03-09 19:09:00,
2013-03-09 14:12:00,55.0,18.8,30.22,North,9,0.0,0.0,24,0.00,,,0.00,Wunderground v.1.15,2013-03-09 19:12:00,
2013-03-09 14:14:00,54.7,17.6,30.22,NNW,328,0.0,0.0,23,0.00,,,0.00,Wunderground v.1.15,2013-03-09 19:14:00,
2013-03-09 14:15:00,54.7,18.6,30.22,NNE,13,0.0,0.0,24,0.00,,,0.00,Wunderground v.1.15,2013-03-09 19:15:00,
2013-03-09 14:18:00,54.7,19.5,30.22,NNE,30,0.0,0.0,25,0.00,,,0.00,Wunderground v.1.15,2013-03-09 19:18:00,
2013-03-09 14:20:00,54.8,19.6,30.22,NW,306,0.0,0.0,25,0.00,,,0.00,Wunderground v.1.15,2013-03-09 19:20:00,
2013-03-09 14:23:00,54.8,17.7,30.22,NNE,20,0.0,0.0,23,0.00,,,0.00,Wunderground v.1.15,2013-03-09 19:23:00,
2013-03-09 14:25:00,55.0,17.8,30.22,NE,45,0.0,0.0,23,0.00,,,0.00,Wunderground v.1.15,2013-03-09 19:25:00,
2013-03-09 14:26:00,55.0,17.8,30.22,NNW,329,0.0,0.0,23,0.00,,,0.00,Wunderground v.1.15,2013-03-09 19:26:00,
2013-03-09 14:30:00,55.0,19.8,30.22,WNW,285,0.0,0.0,25,0.00,,,0.00,Wunderground v.1.15,2013-03-09 19:30:00,
2013-03-09 14:31:00,55.0,18.8,30.22,NW,314,0.0,0.0,24,0.00,,,0.00,Wunderground v.1.15,2013-03-09 19:31:00,
2013-03-09 14:32:00,55.0,18.8,30.22,NW,316,0.0,0.0,24,0.00,,,0.00,Wunderground v.1.15,2013-03-09 19:32:00,
2013-03-09 14:34:00,55.0,16.8,30.22,North,350,0.0,0.0,22,0.00,,,0.00,Wunderground v.1.15,2013-03-09 19:34:00,
2013-03-09 14:38:00,55.1,17.9,30.22,WNW,302,0.0,0.0,23,0.00,,,0.00,Wunderground v.1.15,2013-03-09 19:38:00,
2013-03-09 14:40:00,55.3,18.1,30.22,WNW,298,0.0,0.0,23,0.00,,,0.00,Wunderground v.1.15,2013-03-09 19:40:00,
2013-03-09 14:42:00,55.4,19.2,30.22,West,267,0.0,0.0,24,0.00,,,0.00,Wunderground v.1.15,2013-03-09 19:42:00,
2013-03-09 14:44:00,55.6,19.3,30.22,NW,314,0.0,0.0,24,0.00,,,0.00,Wunderground v.1.15,2013-03-09 19:44:00,
2013-03-09 14:45:00,55.6,18.3,30.22,NNW,339,0.0,0.0,23,0.00,,,0.00,Wunderground v.1.15,2013-03-09 19:45:00,
2013-03-09 14:47:00,55.4,19.2,30.22,WNW,290,0.0,0.0,24,0.00,,,0.00,Wunderground v.1.15,2013-03-09 19:47:00,
2013-03-09 14:49:00,55.3,20.0,30.22,NE,42,0.0,0.0,25,0.00,,,0.00,Wunderground v.1.15,2013-03-09 19:49:00,
2013-03-09 14:50:00,55.3,18.1,30.22,NW,324,0.0,0.0,23,0.00,,,0.00,Wunderground v.1.15,2013-03-09 19:50:00,
2013-03-09 14:52:00,55.4,19.2,30.22,North,355,0.0,0.0,24,0.00,,,0.00,Wunderground v.1.15,2013-03-09 19:52:00,
2013-03-09 14:54:00,55.4,19.2,30.22,NNE,24,0.0,0.0,24,0.00,,,0.00,Wunderground v.1.15,2013-03-09 19:54:00,
2013-03-09 14:57:00,55.6,19.3,30.22,WNW,288,0.0,4.0,24,0.00,,,0.00,Wunderground v.1.15,2013-03-09 19:57:00,
2013-03-09 14:59:00,55.6,19.3,30.22,NW,320,1.0,4.0,24,0.00,,,0.00,Wunderground v.1.15,2013-03-09 19:59:00,
2013-03-09 15:02:00,55.7,18.4,30.22,NW,324,2.0,9.0,23,0.00,,,0.00,Wunderground v.1.15,2013-03-09 20:02:00,
2013-03-09 15:04:00,55.7,17.4,30.22,North,9,3.0,10.0,22,0.00,,,0.00,Wunderground v.1.15,2013-03-09 20:04:00,
2013-03-09 15:05:00,55.6,17.3,30.22,NW,306,4.0,10.0,22,0.00,,,0.00,Wunderground v.1.15,2013-03-09 20:05:00,
2013-03-09 15:08:00,55.6,17.3,30.23,NW,319,6.0,10.0,22,0.00,,,0.00,Wunderground v.1.15,2013-03-09 20:08:00,
2013-03-09 15:09:00,55.7,18.4,30.23,WNW,297,6.0,10.0,23,0.00,,,0.00,Wunderground v.1.15,2013-03-09 20:09:00,
2013-03-09 15:10:00,55.7,19.4,30.23,WNW,288,6.0,6.0,24,0.00,,,0.00,Wunderground v.1.15,2013-03-09 20:10:00,
2013-03-09 15:11:00,55.7,18.4,30.23,WNW,296,6.0,10.0,23,0.00,,,0.00,Wunderground v.1.15,2013-03-09 20:11:00,
2013-03-09 15:15:00,55.9,16.5,30.23,NW,319,5.0,10.0,21,0.00,,,0.00,Wunderground v.1.15,2013-03-09 20:15:00,
2013-03-09 15:16:00,55.9,16.5,30.23,NNW,346,5.0,10.0,21,0.00,,,0.00,Wunderground v.1.15,2013-03-09 20:16:00,
2013-03-09 15:17:00,55.9,17.6,30.23,NNW,327,5.0,10.0,22,0.00,,,0.00,Wunderground v.1.15,2013-03-09 20:17:00,
2013-03-09 15:22:00,55.9,17.6,30.23,NNW,335,5.0,12.0,22,0.00,,,0.00,Wunderground v.1.15,2013-03-09 20:22:00,
2013-03-09 15:23:00,55.9,17.6,30.23,NNW,342,5.0,12.0,22,0.00,,,0.00,Wunderground v.1.15,2013-03-09 20:23:00,
2013-03-09 15:24:00,55.7,16.3,30.23,NE,51,5.0,12.0,21,0.00,,,0.00,Wunderground v.1.15,2013-03-09 20:24:00,
2013-03-09 15:27:00,55.9,18.6,30.23,WNW,286,4.0,12.0,23,0.00,,,0.00,Wunderground v.1.15,2013-03-09 20:27:00,
2013-03-09 15:29:00,56.0,18.7,30.23,NNW,331,4.0,12.0,23,0.00,,,0.00,Wunderground v.1.15,2013-03-09 20:29:00,
2013-03-09 15:31:00,56.0,17.6,30.23,NW,314,5.0,12.0,22,0.00,,,0.00,Wunderground v.1.15,2013-03-09 20:31:00,
2013-03-09 15:32:00,56.0,17.6,30.23,NW,325,5.0,12.0,22,0.00,,,0.00,Wunderground v.1.15,2013-03-09 20:32:00,
2013-03-09 15:36:00,56.0,17.6,30.23,NW,311,5.0,13.0,22,0.00,,,0.00,Wunderground v.1.15,2013-03-09 20:36:00,
2013-03-09 15:37:00,56.2,17.8,30.23,NW,317,5.0,13.0,22,0.00,,,0.00,Wunderground v.1.15,2013-03-09 20:37:00,
2013-03-09 15:42:00,56.5,18.1,30.23,NNW,329,3.0,13.0,22,0.00,,,0.00,Wunderground v.1.15,2013-03-09 20:42:00,
2013-03-09 15:43:00,56.5,19.1,30.23,NNE,33,3.0,13.0,23,0.00,,,0.00,Wunderground v.1.15,2013-03-09 20:43:00,
2013-03-09 15:44:00,56.5,18.1,30.23,NE,51,3.0,13.0,22,0.00,,,0.00,Wunderground v.1.15,2013-03-09 20:44:00,
2013-03-09 15:45:00,56.5,18.1,30.23,WNW,300,3.0,13.0,22,0.00,,,0.00,Wunderground v.1.15,2013-03-09 20:45:00,
2013-03-09 15:50:00,56.3,17.9,30.23,WNW,293,3.0,12.0,22,0.00,,,0.00,Wunderground v.1.15,2013-03-09 20:50:00,
2013-03-09 15:51:00,56.2,16.7,30.23,NW,308,4.0,12.0,21,0.00,,,0.00,Wunderground v.1.15,2013-03-09 20:51:00,
2013-03-09 15:52:00,56.2,16.7,30.23,WNW,296,5.0,12.0,21,0.00,,,0.00,Wunderground v.1.15,2013-03-09 20:52:00,
2013-03-09 15:55:00,55.9,17.6,30.23,NW,319,5.0,12.0,22,0.00,,,0.00,Wunderground v.1.15,2013-03-09 20:55:00,
2013-03-09 15:57:00,55.9,17.6,30.23,WNW,290,6.0,12.0,22,0.00,,,0.00,Wunderground v.1.15,2013-03-09 20:57:00,
2013-03-09 15:59:00,55.7,16.3,30.23,NW,308,7.0,12.0,21,0.00,,,0.00,Wunderground v.1.15,2013-03-09 20:59:00,
2013-03-09 16:00:00,55.7,17.4,30.23,North,9,7.0,12.0,22,0.00,,,0.00,Wunderground v.1.15,2013-03-09 21:00:00,
2013-03-09 16:01:00,55.7,17.4,30.23,NW,320,7.0,12.0,22,0.00,,,0.00,Wunderground v.1.15,2013-03-09 21:01:00,
2013-03-09 16:04:00,55.7,17.4,30.23,North,350,6.0,14.0,22,0.00,,,0.00,Wunderground v.1.15,2013-03-09 21:04:00,
2013-03-09 16:05:00,55.7,17.4,30.23,North,350,6.0,14.0,22,0.00,,,0.00,Wunderground v.1.15,2013-03-09 21:05:00,
2013-03-09 16:07:00,55.7,17.4,30.23,NNE,14,6.0,14.0,22,0.00,,,0.00,Wunderground v.1.15,2013-03-09 21:07:00,
2013-03-09 16:08:00,55.7,17.4,30.23,NNW,331,5.0,14.0,22,0.00,,,0.00,Wunderground v.1.15,2013-03-09 21:08:00,
2013-03-09 16:11:00,55.9,17.6,30.23,WNW,286,4.0,14.0,22,0.00,,,0.00,Wunderground v.1.15,2013-03-09 21:11:00,
2013-03-09 16:13:00,55.9,17.6,30.23,NNW,333,5.0,14.0,22,0.00,,,0.00,Wunderground v.1.15,2013-03-09 21:13:00,
2013-03-09 16:15:00,55.9,16.5,30.23,NNE,17,5.0,14.0,21,0.00,,,0.00,Wunderground v.1.15,2013-03-09 21:15:00,
2013-03-09 16:18:00,56.0,16.6,30.23,NNE,26,4.0,14.0,21,0.00,,,0.00,Wunderground v.1.15,2013-03-09 21:18:00,
2013-03-09 16:20:00,56.0,16.6,30.23,NNW,348,4.0,4.0,21,0.00,,,0.00,Wunderground v.1.15,2013-03-09 21:20:00,
2013-03-09 16:21:00,56.2,16.7,30.23,WNW,292,3.0,12.0,21,0.00,,,0.00,Wunderground v.1.15,2013-03-09 21:21:00,
2013-03-09 16:22:00,56.2,16.7,30.23,NNW,347,3.0,12.0,21,0.00,,,0.00,Wunderground v.1.15,2013-03-09 21:22:00,
2013-03-09 16:23:00,56.2,15.6,30.23,NE,50,3.0,12.0,20,0.00,,,0.00,Wunderground v.1.15,2013-03-09 21:23:00,
2013-03-09 16:28:00,56.0,15.4,30.23,NW,315,3.0,12.0,20,0.00,,,0.00,Wunderground v.1.15,2013-03-09 21:28:00,
2013-03-09 16:29:00,56.0,15.4,30.23,NNW,346,3.0,12.0,20,0.00,,,0.00,Wunderground v.1.15,2013-03-09 21:29:00,
2013-03-09 16:33:00,56.0,16.6,30.23,WNW,298,3.0,12.0,21,0.00,,,0.00,Wunderground v.1.15,2013-03-09 21:33:00,
2013-03-09 16:36:00,56.2,16.7,30.23,NW,313,2.0,12.0,21,0.00,,,0.00,Wunderground v.1.15,2013-03-09 21:36:00,
2013-03-09 16:39:00,56.2,16.7,30.23,NNW,329,3.0,12.0,21,0.00,,,0.00,Wunderground v.1.15,2013-03-09 21:39:00,
2013-03-09 16:40:00,56.2,16.7,30.23,NW,323,3.0,3.0,21,0.00,,,0.00,Wunderground v.1.15,2013-03-09 21:40:00,
2013-03-09 16:42:00,56.0,17.6,30.23,NW,313,3.0,7.0,22,0.00,,,0.00,Wunderground v.1.15,2013-03-09 21:42:00,
2013-03-09 16:44:00,56.0,17.6,30.23,WNW,297,3.0,7.0,22,0.00,,,0.00,Wunderground v.1.15,2013-03-09 21:44:00,
2013-03-09 16:45:00,55.9,17.6,30.23,NW,312,3.0,7.0,22,0.00,,,0.00,Wunderground v.1.15,2013-03-09 21:45:00,
2013-03-09 16:47:00,55.7,17.4,30.23,NW,316,3.0,7.0,22,0.00,,,0.00,Wunderground v.1.15,2013-03-09 21:47:00,
2013-03-09 16:52:00,55.6,17.3,30.23,North,10,3.0,7.0,22,0.00,,,0.00,Wunderground v.1.15,2013-03-09 21:52:00,
2013-03-09 16:53:00,55.6,17.3,30.24,North,10,3.0,7.0,22,0.00,,,0.00,Wunderground v.1.15,2013-03-09 21:53:00,
2013-03-09 16:54:00,55.6,16.2,30.23,North,360,3.0,7.0,21,0.00,,,0.00,Wunderground v.1.15,2013-03-09 21:54:00,
2013-03-09 16:57:00,55.4,16.1,30.24,North,360,2.0,7.0,21,0.00,,,0.00,Wunderground v.1.15,2013-03-09 21:57:00,
2013-03-09 16:59:00,55.4,16.1,30.24,North,355,2.0,7.0,21,0.00,,,0.00,Wunderground v.1.15,2013-03-09 21:59:00,
2013-03-09 17:00:00,55.4,16.1,30.24,NE,43,2.0,2.0,21,0.00,,,0.00,Wunderground v.1.15,2013-03-09 22:00:00,
2013-03-09 17:02:00,55.4,16.1,30.24,NNE,14,2.0,7.0,21,0.00,,,0.00,Wunderground v.1.15,2013-03-09 22:02:00,
2013-03-09 17:06:00,55.4,16.1,30.24,NW,311,2.0,7.0,21,0.00,,,0.00,Wunderground v.1.15,2013-03-09 22:06:00,
2013-03-09 17:07:00,55.3,14.8,30.24,NNW,340,2.0,7.0,20,0.00,,,0.00,Wunderground v.1.15,2013-03-09 22:07:00,
2013-03-09 17:08:00,55.3,16.0,30.24,WNW,302,2.0,7.0,21,0.00,,,0.00,Wunderground v.1.15,2013-03-09 22:08:00,
2013-03-09 17:10:00,55.3,16.0,30.24,NW,305,2.0,2.0,21,0.00,,,0.00,Wunderground v.1.15,2013-03-09 22:10:00,
2013-03-09 17:12:00,55.3,16.0,30.24,NNW,340,2.0,7.0,21,0.00,,,0.00,Wunderground v.1.15,2013-03-09 22:12:00,
2013-03-09 17:16:00,55.1,15.8,30.24,NNW,347,1.0,7.0,21,0.00,,,0.00,Wunderground v.1.15,2013-03-09 22:16:00,
2013-03-09 17:17:00,55.1,15.8,30.24,NNW,347,1.0,7.0,21,0.00,,,0.00,Wunderground v.1.15,2013-03-09 22:17:00,
2013-03-09 17:19:00,55.1,15.8,30.24,NNW,348,1.0,9.0,21,0.00,,,0.00,Wunderground v.1.15,2013-03-09 22:19:00,
2013-03-09 17:22:00,55.0,15.7,30.24,NW,305,1.0,9.0,21,0.00,,,0.00,Wunderground v.1.15,2013-03-09 22:22:00,
2013-03-09 17:24:00,54.8,16.6,30.24,North,11,2.0,9.0,22,0.00,,,0.00,Wunderground v.1.15,2013-03-09 22:24:00,
2013-03-09 17:25:00,54.8,16.6,30.24,North,11,1.0,9.0,22,0.00,,,0.00,Wunderground v.1.15,2013-03-09 22:25:00,
2013-03-09 17:27:00,54.8,16.6,30.25,NNW,336,1.0,9.0,22,0.00,,,0.00,Wunderground v.1.15,2013-03-09 22:27:00,
2013-03-09 17:30:00,54.7,16.5,30.25,NW,306,2.0,2.0,22,0.00,,,0.00,Wunderground v.1.15,2013-03-09 22:30:00,
2013-03-09 17:31:00,54.5,16.4,30.25,NW,306,2.0,9.0,22,0.00,,,0.00,Wunderground v.1.15,2013-03-09 22:31:00,
2013-03-09 17:32:00,54.5,17.4,30.25,NW,306,2.0,9.0,23,0.00,,,0.00,Wunderground v.1.15,2013-03-09 22:32:00,
2013-03-09 17:34:00,54.4,17.3,30.25,NW,307,2.0,9.0,23,0.00,,,0.00,Wunderground v.1.15,2013-03-09 22:34:00,
2013-03-09 17:38:00,54.2,17.1,30.25,NW,307,1.0,9.0,23,0.00,,,0.00,Wunderground v.1.15,2013-03-09 22:38:00,
2013-03-09 17:40:00,54.1,17.1,30.25,NW,306,1.0,6.0,23,0.00,,,0.00,Wunderground v.1.15,2013-03-09 22:40:00,
2013-03-09 17:42:00,53.9,16.9,30.25,NW,307,1.0,6.0,23,0.00,,,0.00,Wunderground v.1.15,2013-03-09 22:42:00,
2013-03-09 17:43:00,53.9,16.9,30.25,NW,306,1.0,6.0,23,0.00,,,0.00,Wunderground v.1.15,2013-03-09 22:43:00,
2013-03-09 17:44:00,53.9,17.9,30.25,NW,306,1.0,6.0,24,0.00,,,0.00,Wunderground v.1.15,2013-03-09 22:44:00,
2013-03-09 17:45:00,53.8,16.8,30.25,NW,306,1.0,6.0,23,0.00,,,0.00,Wunderground v.1.15,2013-03-09 22:45:00,
2013-03-09 17:49:00,53.6,17.6,30.25,NW,306,1.0,6.0,24,0.00,,,0.00,Wunderground v.1.15,2013-03-09 22:49:00,
2013-03-09 17:50:00,53.5,17.5,30.25,NW,306,1.0,1.0,24,0.00,,,0.00,Wunderground v.1.15,2013-03-09 22:50:00,
2013-03-09 17:51:00,53.5,18.5,30.25,NW,306,1.0,4.0,25,0.00,,,0.00,Wunderground v.1.15,2013-03-09 22:51:00,
2013-03-09 17:53:00,53.3,18.3,30.25,NW,306,0.0,4.0,25,0.00,,,0.00,Wunderground v.1.15,2013-03-09 22:53:00,
2013-03-09 17:54:00,53.2,18.2,30.26,NW,306,0.0,4.0,25,0.00,,,0.00,Wunderground v.1.15,2013-03-09 22:54:00,
2013-03-09 17:57:00,53.1,18.2,30.26,NW,306,0.0,4.0,25,0.00,,,0.00,Wunderground v.1.15,2013-03-09 22:57:00,
2013-03-09 17:58:00,52.9,18.0,30.26,NW,306,0.0,4.0,25,0.00,,,0.00,Wunderground v.1.15,2013-03-09 22:58:00,
2013-03-09 18:02:00,52.8,17.9,30.25,NW,306,0.0,4.0,25,0.00,,,0.00,Wunderground v.1.15,2013-03-09 23:02:00,
2013-03-09 18:03:00,52.6,17.7,30.25,NW,306,0.0,4.0,25,0.00,,,0.00,Wunderground v.1.15,2013-03-09 23:03:00,
2013-03-09 18:07:00,52.3,18.4,30.25,NW,307,0.0,4.0,26,0.00,,,0.00,Wunderground v.1.15,2013-03-09 23:07:00,
2013-03-09 18:09:00,52.0,18.1,30.26,NW,306,0.0,4.0,26,0.00,,,0.00,Wunderground v.1.15,2013-03-09 23:09:00,
2013-03-09 18:12:00,51.7,18.7,30.26,NW,306,0.0,2.0,27,0.00,,,0.00,Wunderground v.1.15,2013-03-09 23:12:00,
2013-03-09 18:13:00,51.6,19.5,30.26,NW,307,0.0,2.0,28,0.00,,,0.00,Wunderground v.1.15,2013-03-09 23:13:00,
2013-03-09 18:16:00,51.1,19.1,30.26,NW,307,0.0,2.0,28,0.00,,,0.00,Wunderground v.1.15,2013-03-09 23:16:00,
2013-03-09 18:17:00,51.0,18.1,30.26,NW,307,0.0,2.0,27,0.00,,,0.00,Wunderground v.1.15,2013-03-09 23:17:00,
2013-03-09 18:20:00,50.4,20.9,30.26,NW,306,0.0,1.0,31,0.00,,,0.00,Wunderground v.1.15,2013-03-09 23:20:00,
2013-03-09 18:21:00,50.2,21.4,30.26,NW,307,0.0,1.0,32,0.00,,,0.00,Wunderground v.1.15,2013-03-09 23:21:00,
2013-03-09 18:25:00,49.2,22.0,30.26,NW,307,0.0,1.0,34,0.00,,,0.00,Wunderground v.1.15,2013-03-09 23:25:00,
2013-03-09 18:26:00,49.1,22.6,30.26,NW,306,0.0,1.0,35,0.00,,,0.00,Wunderground v.1.15,2013-03-09 23:26:00,
2013-03-09 18:27:00,48.8,22.3,30.26,NW,307,0.0,1.0,35,0.00,,,0.00,Wunderground v.1.15,2013-03-09 23:27:00,
2013-03-09 18:28:00,48.5,23.4,30.26,NW,307,0.0,1.0,37,0.00,,,0.00,Wunderground v.1.15,2013-03-09 23:28:00,
2013-03-09 18:32:00,47.6,24.4,30.27,NW,306,0.0,1.0,40,0.00,,,0.00,Wunderground v.1.15,2013-03-09 23:32:00,
2013-03-09 18:33:00,47.3,23.6,30.27,NW,306,0.0,1.0,39,0.00,,,0.00,Wunderground v.1.15,2013-03-09 23:33:00,
2013-03-09 18:35:00,47.0,23.3,30.27,NW,306,0.0,1.0,39,0.00,,,0.00,Wunderground v.1.15,2013-03-09 23:35:00,
2013-03-09 18:38:00,46.2,23.2,30.27,NW,307,0.0,1.0,40,0.00,,,0.00,Wunderground v.1.15,2013-03-09 23:38:00,
2013-03-09 18:40:00,45.8,23.4,30.27,NW,306,0.0,1.0,41,0.00,,,0.00,Wunderground v.1.15,2013-03-09 23:40:00,
2013-03-09 18:41:00,45.7,23.3,30.27,NW,307,0.0,1.0,41,0.00,,,0.00,Wunderground v.1.15,2013-03-09 23:41:00,
2013-03-09 18:43:00,45.2,23.4,30.27,NW,307,0.0,1.0,42,0.00,,,0.00,Wunderground v.1.15,2013-03-09 23:43:00,
2013-03-09 18:46:00,44.8,23.6,30.27,NW,307,0.0,1.0,43,0.00,,,0.00,Wunderground v.1.15,2013-03-09 23:46:00,
2013-03-09 18:49:00,44.3,23.7,30.27,NW,307,0.0,1.0,44,0.00,,,0.00,Wunderground v.1.15,2013-03-09 23:49:00,
2013-03-09 18:50:00,44.2,23.6,30.27,NW,307,0.0,1.0,44,0.00,,,0.00,Wunderground v.1.15,2013-03-09 23:50:00,
2013-03-09 18:51:00,44.1,24.1,30.27,NW,307,0.0,1.0,45,0.00,,,0.00,Wunderground v.1.15,2013-03-09 23:51:00,
2013-03-09 18:55:00,43.6,24.2,30.27,NW,307,0.0,1.0,46,0.00,,,0.00,Wunderground v.1.15,2013-03-09 23:55:00,
2013-03-09 18:56:00,43.5,24.6,30.27,NW,307,0.0,1.0,47,0.00,,,0.00,Wunderground v.1.15,2013-03-09 23:56:00,
2013-03-09 18:57:00,43.5,25.1,30.27,NW,307,0.0,1.0,48,0.00,,,0.00,Wunderground v.1.15,2013-03-09 23:57:00,
2013-03-09 19:00:00,43.3,24.9,30.27,NW,307,0.0,1.0,48,0.00,,,0.00,Wunderground v.1.15,2013-03-10 00:00:00,
2013-03-09 19:01:00,43.2,25.3,30.27,NW,307,0.0,1.0,49,0.00,,,0.00,Wunderground v.1.15,2013-03-10 00:01:00,
2013-03-09 19:03:00,43.1,25.2,30.27,NW,307,0.0,1.0,49,0.00,,,0.00,Wunderground v.1.15,2013-03-10 00:03:00,
2013-03-09 19:05:00,42.9,25.0,30.27,NW,307,0.0,1.0,49,0.00,,,0.00,Wunderground v.1.15,2013-03-10 00:05:00,
2013-03-09 19:08:00,42.6,24.8,30.27,NW,307,0.0,1.0,49,0.00,,,0.00,Wunderground v.1.15,2013-03-10 00:08:00,
2013-03-09 19:09:00,42.5,24.7,30.27,NW,307,0.0,1.0,49,0.00,,,0.00,Wunderground v.1.15,2013-03-10 00:09:00,
2013-03-09 19:10:00,42.5,24.7,30.27,NW,307,0.0,0.0,49,0.00,,,0.00,Wunderground v.1.15,2013-03-10 00:10:00,
2013-03-09 19:11:00,42.3,25.0,30.27,NW,307,0.0,0.0,50,0.00,,,0.00,Wunderground v.1.15,2013-03-10 00:11:00,
2013-03-09 19:15:00,41.9,24.6,30.27,NW,307,0.0,0.0,50,0.00,,,0.00,Wunderground v.1.15,2013-03-10 00:15:00,
2013-03-09 19:16:00,41.9,24.6,30.27,NW,307,0.0,0.0,50,0.00,,,0.00,Wunderground v.1.15,2013-03-10 00:16:00,
2013-03-09 19:20:00,41.6,24.8,30.28,NW,307,0.0,0.0,51,0.00,,,0.00,Wunderground v.1.15,2013-03-10 00:20:00,
2013-03-09 19:21:00,41.5,24.7,30.28,NW,306,0.0,0.0,51,0.00,,,0.00,Wunderground v.1.15,2013-03-10 00:21:00,
2013-03-09 19:22:00,41.5,25.2,30.28,NW,307,0.0,0.0,52,0.00,,,0.00,Wunderground v.1.15,2013-03-10 00:22:00,
2013-03-09 19:25:00,41.2,25.3,30.28,NW,307,0.0,0.0,53,0.00,,,0.00,Wunderground v.1.15,2013-03-10 00:25:00,
2013-03-09 19:26:00,41.2,24.4,30.28,NW,307,0.0,0.0,51,0.00,,,0.00,Wunderground v.1.15,2013-03-10 00:26:00,
2013-03-09 19:27:00,41.1,24.8,30.28,NW,307,0.0,0.0,52,0.00,,,0.00,Wunderground v.1.15,2013-03-10 00:27:00,
2013-03-09 19:31:00,40.8,25.4,30.28,NW,307,0.0,0.0,54,0.00,,,0.00,Wunderground v.1.15,2013-03-10 00:31:00,
2013-03-09 19:32:00,40.8,25.4,30.28,NW,307,0.0,0.0,54,0.00,,,0.00,Wunderground v.1.15,2013-03-10 00:32:00,
2013-03-09 19:34:00,40.6,25.2,30.28,NW,306,0.0,0.0,54,0.00,,,0.00,Wunderground v.1.15,2013-03-10 00:34:00,
2013-03-09 19:36:00,40.5,25.1,30.28,NW,307,0.0,0.0,54,0.00,,,0.00,Wunderground v.1.15,2013-03-10 00:36:00,
2013-03-09 19:37:00,40.5,25.1,30.28,NW,307,0.0,0.0,54,0.00,,,0.00,Wunderground v.1.15,2013-03-10 00:37:00,
2013-03-09 19:38:00,40.3,24.5,30.28,NW,307,0.0,0.0,53,0.00,,,0.00,Wunderground v.1.15,2013-03-10 00:38:00,
2013-03-09 19:43:00,40.1,25.6,30.28,NW,307,0.0,0.0,56,0.00,,,0.00,Wunderground v.1.15,2013-03-10 00:43:00,
2013-03-09 19:44:00,40.1,26.1,30.28,NW,307,0.0,0.0,57,0.00,,,0.00,Wunderground v.1.15,2013-03-10 00:44:00,
2013-03-09 19:45:00,39.9,26.3,30.28,NW,307,0.0,0.0,58,0.00,,,0.00,Wunderground v.1.15,2013-03-10 00:45:00,
2013-03-09 19:46:00,39.9,26.3,30.28,NW,307,0.0,0.0,58,0.00,,,0.00,Wunderground v.1.15,2013-03-10 00:46:00,
2013-03-09 19:50:00,39.6,26.0,30.28,NW,307,0.0,0.0,58,0.00,,,0.00,Wunderground v.1.15,2013-03-10 00:50:00,
2013-03-09 19:51:00,39.5,25.5,30.28,NW,307,0.0,0.0,57,0.00,,,0.00,Wunderground v.1.15,2013-03-10 00:51:00,
2013-03-09 19:52:00,39.3,25.3,30.28,NW,307,0.0,0.0,57,0.00,,,0.00,Wunderground v.1.15,2013-03-10 00:52:00,
2013-03-09 19:56:00,39.1,25.1,30.28,NW,307,0.0,0.0,57,0.00,,,0.00,Wunderground v.1.15,2013-03-10 00:56:00,
2013-03-09 19:57:00,38.9,24.9,30.28,NW,307,0.0,0.0,57,0.00,,,0.00,Wunderground v.1.15,2013-03-10 00:57:00,
2013-03-09 20:00:00,38.8,24.9,30.28,NW,307,0.0,0.0,57,0.00,,,0.00,Wunderground v.1.15,2013-03-10 01:00:00,
2013-03-09 20:02:00,38.6,24.7,30.28,NW,307,0.0,0.0,57,0.00,,,0.00,Wunderground v.1.15,2013-03-10 01:02:00,
2013-03-09 20:03:00,38.6,24.7,30.28,NW,307,0.0,1.0,57,0.00,,,0.00,Wunderground v.1.15,2013-03-10 01:03:00,
2013-03-09 20:05:00,38.5,25.0,30.28,NW,307,0.0,1.0,58,0.00,,,0.00,Wunderground v.1.15,2013-03-10 01:05:00,
2013-03-09 20:07:00,38.5,25.4,30.28,NW,307,0.0,1.0,59,0.00,,,0.00,Wunderground v.1.15,2013-03-10 01:07:00,
2013-03-09 20:10:00,38.3,25.2,30.28,NW,307,0.0,1.0,59,0.00,,,0.00,Wunderground v.1.15,2013-03-10 01:10:00,
2013-03-09 20:11:00,38.2,24.7,30.28,NW,307,0.0,1.0,58,0.00,,,0.00,Wunderground v.1.15,2013-03-10 01:11:00,
2013-03-09 20:12:00,38.2,24.7,30.28,NW,307,0.0,1.0,58,0.00,,,0.00,Wunderground v.1.15,2013-03-10 01:12:00,
2013-03-09 20:16:00,38.0,24.9,30.29,NW,307,0.0,1.0,59,0.00,,,0.00,Wunderground v.1.15,2013-03-10 01:16:00,
2013-03-09 20:17:00,38.0,25.3,30.29,NW,307,0.0,1.0,60,0.00,,,0.00,Wunderground v.1.15,2013-03-10 01:17:00,
2013-03-09 20:20:00,37.9,25.2,30.29,NW,307,0.0,0.0,60,0.00,,,0.00,Wunderground v.1.15,2013-03-10 01:20:00,
2013-03-09 20:21:00,37.9,25.2,30.29,NW,307,0.0,0.0,60,0.00,,,0.00,Wunderground v.1.15,2013-03-10 01:21:00,
2013-03-09 20:22:00,37.8,25.5,30.29,NW,307,0.0,0.0,61,0.00,,,0.00,Wunderground v.1.15,2013-03-10 01:22:00,
2013-03-09 20:24:00,37.8,25.5,30.29,NW,306,0.0,0.0,61,0.00,,,0.00,Wunderground v.1.15,2013-03-10 01:24:00,
2013-03-09 20:26:00,37.6,25.4,30.29,NW,307,0.0,0.0,61,0.00,,,0.00,Wunderground v.1.15,2013-03-10 01:26:00,
2013-03-09 20:27:00,37.6,25.4,30.29,NW,307,0.0,0.0,61,0.00,,,0.00,Wunderground v.1.15,2013-03-10 01:27:00,
2013-03-09 20:31:00,37.5,25.3,30.29,NW,307,0.0,0.0,61,0.00,,,0.00,Wunderground v.1.15,2013-03-10 01:31:00,
2013-03-09 20:32:00,37.3,25.1,30.29,NW,307,0.0,0.0,61,0.00,,,0.00,Wunderground v.1.15,2013-03-10 01:32:00,
2013-03-09 20:34:00,37.3,25.1,30.29,NW,307,0.0,1.0,61,0.00,,,0.00,Wunderground v.1.15,2013-03-10 01:34:00,
2013-03-09 20:35:00,37.3,25.1,30.29,NW,306,0.0,1.0,61,0.00,,,0.00,Wunderground v.1.15,2013-03-10 01:35:00,
2013-03-09 20:37:00,37.2,25.0,30.29,NW,307,0.0,1.0,61,0.00,,,0.00,Wunderground v.1.15,2013-03-10 01:37:00,
2013-03-09 20:41:00,37.0,24.8,30.29,NW,307,0.0,1.0,61,0.00,,,0.00,Wunderground v.1.15,2013-03-10 01:41:00,
2013-03-09 20:42:00,37.0,25.2,30.29,NW,307,0.0,1.0,62,0.00,,,0.00,Wunderground v.1.15,2013-03-10 01:42:00,
2013-03-09 20:43:00,37.0,25.2,30.29,NW,307,0.0,1.0,62,0.00,,,0.00,Wunderground v.1.15,2013-03-10 01:43:00,
2013-03-09 20:45:00,37.0,25.2,30.29,NW,307,0.0,1.0,62,0.00,,,0.00,Wunderground v.1.15,2013-03-10 01:45:00,
2013-03-09 20:50:00,36.9,25.5,30.29,NW,307,0.0,0.0,63,0.00,,,0.00,Wunderground v.1.15,2013-03-10 01:50:00,
2013-03-09 20:52:00,36.9,25.9,30.29,NW,307,0.0,0.0,64,0.00,,,0.00,Wunderground v.1.15,2013-03-10 01:52:00,
2013-03-09 20:53:00,36.8,25.8,30.29,NW,307,0.0,0.0,64,0.00,,,0.00,Wunderground v.1.15,2013-03-10 01:53:00,
2013-03-09 20:55:00,36.8,25.8,30.29,NW,307,0.0,0.0,64,0.00,,,0.00,Wunderground v.1.15,2013-03-10 01:55:00,
2013-03-09 20:57:00,36.6,25.6,30.29,NW,306,0.0,0.0,64,0.00,,,0.00,Wunderground v.1.15,2013-03-10 01:57:00,
2013-03-09 21:02:00,36.3,25.3,30.30,NW,307,0.0,0.0,64,0.00,,,0.00,Wunderground v.1.15,2013-03-10 02:02:00,
2013-03-09 21:03:00,36.3,25.3,30.30,NW,307,0.0,1.0,64,0.00,,,0.00,Wunderground v.1.15,2013-03-10 02:03:00,
2013-03-09 21:05:00,36.3,25.7,30.30,NW,307,0.0,1.0,65,0.00,,,0.00,Wunderground v.1.15,2013-03-10 02:05:00,
2013-03-09 21:07:00,36.3,25.3,30.30,NW,307,0.0,1.0,64,0.00,,,0.00,Wunderground v.1.15,2013-03-10 02:07:00,
2013-03-09 21:09:00,36.2,25.2,30.30,NW,307,0.0,1.0,64,0.00,,,0.00,Wunderground v.1.15,2013-03-10 02:09:00,
2013-03-09 21:11:00,36.3,25.7,30.30,NW,307,0.0,1.0,65,0.00,,,0.00,Wunderground v.1.15,2013-03-10 02:11:00,
2013-03-09 21:13:00,36.5,25.8,30.30,NW,307,0.0,1.0,65,0.00,,,0.00,Wunderground v.1.15,2013-03-10 02:13:00,
2013-03-09 21:16:00,36.8,26.5,30.30,NW,307,0.0,1.0,66,0.00,,,0.00,Wunderground v.1.15,2013-03-10 02:16:00,
2013-03-09 21:17:00,36.9,27.0,30.30,NW,307,0.0,1.0,67,0.00,,,0.00,Wunderground v.1.15,2013-03-10 02:17:00,
2013-03-09 21:20:00,37.6,27.6,30.30,NW,307,0.0,1.0,67,0.00,,,0.00,Wunderground v.1.15,2013-03-10 02:20:00,
2013-03-09 21:21:00,37.8,28.2,30.30,NW,307,0.0,1.0,68,0.00,,,0.00,Wunderground v.1.15,2013-03-10 02:21:00,
2013-03-09 21:23:00,37.9,28.3,30.30,NW,307,0.0,1.0,68,0.00,,,0.00,Wunderground v.1.15,2013-03-10 02:23:00,
2013-03-09 21:26:00,38.3,29.0,30.30,NW,307,0.0,1.0,69,0.00,,,0.00,Wunderground v.1.15,2013-03-10 02:26:00,
2013-03-09 21:27:00,38.3,29.0,30.30,NW,307,0.0,1.0,69,0.00,,,0.00,Wunderground v.1.15,2013-03-10 02:27:00,
2013-03-09 21:28:00,38.3,29.0,30.30,NW,306,0.0,1.0,69,0.00,,,0.00,Wunderground v.1.15,2013-03-10 02:28:00,
2013-03-09 21:30:00,38.6,30.0,30.31,NW,307,0.0,1.0,71,0.00,,,0.00,Wunderground v.1.15,2013-03-10 02:30:00,
2013-03-09 21:32:00,38.8,30.5,30.31,NW,306,0.0,1.0,72,0.00,,,0.00,Wunderground v.1.15,2013-03-10 02:32:00,
2013-03-09 21:35:00,38.8,30.9,30.31,NW,307,0.0,4.0,73,0.00,,,0.00,Wunderground v.1.15,2013-03-10 02:35:00,
2013-03-09 21:36:00,39.1,31.8,30.30,NW,307,0.0,4.0,75,0.00,,,0.00,Wunderground v.1.15,2013-03-10 02:36:00,
2013-03-09 21:39:00,39.3,32.4,30.30,NW,306,1.0,4.0,76,0.00,,,0.00,Wunderground v.1.15,2013-03-10 02:39:00,
2013-03-09 21:40:00,39.3,32.4,30.30,NW,307,1.0,1.0,76,0.00,,,0.00,Wunderground v.1.15,2013-03-10 02:40:00,
2013-03-09 21:42:00,39.5,33.2,30.30,NW,306,1.0,3.0,78,0.00,,,0.00,Wunderground v.1.15,2013-03-10 02:42:00,
2013-03-09 21:45:00,39.6,33.6,30.30,NW,306,1.0,3.0,79,0.00,,,0.00,Wunderground v.1.15,2013-03-10 02:45:00,
2013-03-09 21:47:00,39.6,33.9,30.30,NW,307,0.0,3.0,80,0.00,,,0.00,Wunderground v.1.15,2013-03-10 02:47:00,
2013-03-09 21:48:00,39.6,33.9,30.30,NW,307,0.0,4.0,80,0.00,,,0.00,Wunderground v.1.15,2013-03-10 02:48:00,
2013-03-09 21:51:00,39.5,34.2,30.30,NW,307,0.0,4.0,81,0.00,,,0.00,Wunderground v.1.15,2013-03-10 02:51:00,
2013-03-09 21:52:00,39.5,34.2,30.30,NW,307,0.0,4.0,81,0.00,,,0.00,Wunderground v.1.15,2013-03-10 02:52:00,
2013-03-09 21:53:00,39.3,34.0,30.30,NW,307,0.0,4.0,81,0.00,,,0.00,Wunderground v.1.15,2013-03-10 02:53:00,
2013-03-09 21:56:00,39.3,34.0,30.31,NW,306,0.0,4.0,81,0.00,,,0.00,Wunderground v.1.15,2013-03-10 02:56:00,
2013-03-09 21:57:00,39.3,34.0,30.31,NW,307,0.0,4.0,81,0.00,,,0.00,Wunderground v.1.15,2013-03-10 02:57:00,
2013-03-09 21:58:00,39.2,33.9,30.30,NW,306,0.0,4.0,81,0.00,,,0.00,Wunderground v.1.15,2013-03-10 02:58:00,
2013-03-09 21:59:00,39.2,33.9,30.31,NW,307,0.0,4.0,81,0.00,,,0.00,Wunderground v.1.15,2013-03-10 02:59:00,
2013-03-09 22:04:00,38.8,33.5,30.31,NW,307,0.0,4.0,81,0.00,,,0.00,Wunderground v.1.15,2013-03-10 03:04:00,
2013-03-09 22:05:00,38.6,33.6,30.31,NW,307,0.0,4.0,82,0.00,,,0.00,Wunderground v.1.15,2013-03-10 03:05:00,
2013-03-09 22:08:00,38.3,33.3,30.31,NW,307,0.0,4.0,82,0.00,,,0.00,Wunderground v.1.15,2013-03-10 03:08:00,
2013-03-09 22:11:00,38.2,33.2,30.31,NW,307,0.0,1.0,82,0.00,,,0.00,Wunderground v.1.15,2013-03-10 03:11:00,
2013-03-09 22:14:00,38.0,33.0,30.31,NW,307,0.0,1.0,82,0.00,,,0.00,Wunderground v.1.15,2013-03-10 03:14:00,
2013-03-09 22:16:00,37.9,32.9,30.31,NW,307,0.0,1.0,82,0.00,,,0.00,Wunderground v.1.15,2013-03-10 03:16:00,
2013-03-09 22:18:00,37.8,33.1,30.31,NW,306,0.0,1.0,83,0.00,,,0.00,Wunderground v.1.15,2013-03-10 03:18:00,
2013-03-09 22:19:00,37.6,32.9,30.31,NW,307,0.0,1.0,83,0.00,,,0.00,Wunderground v.1.15,2013-03-10 03:19:00,
2013-03-09 22:21:00,37.5,32.8,30.31,NW,306,0.0,0.0,83,0.00,,,0.00,Wunderground v.1.15,2013-03-10 03:21:00,
2013-03-09 22:24:00,37.3,32.6,30.32,NW,307,0.0,0.0,83,0.00,,,0.00,Wunderground v.1.15,2013-03-10 03:24:00,
2013-03-09 22:25:00,37.2,32.5,30.32,NW,306,0.0,0.0,83,0.00,,,0.00,Wunderground v.1.15,2013-03-10 03:25:00,
2013-03-09 22:27:00,37.0,32.3,30.32,NW,307,0.0,0.0,83,0.00,,,0.00,Wunderground v.1.15,2013-03-10 03:27:00,
2013-03-09 22:30:00,36.9,32.2,30.32,NW,307,0.0,0.0,83,0.00,,,0.00,Wunderground v.1.15,2013-03-10 03:30:00,
2013-03-09 22:31:00,36.8,32.4,30.32,NW,307,0.0,0.0,84,0.00,,,0.00,Wunderground v.1.15,2013-03-10 03:31:00,
2013-03-09 22:35:00,36.3,31.9,30.32,NW,306,0.0,0.0,84,0.00,,,0.00,Wunderground v.1.15,2013-03-10 03:35:00,
2013-03-09 22:36:00,36.3,31.9,30.32,NW,307,0.0,0.0,84,0.00,,,0.00,Wunderground v.1.15,2013-03-10 03:36:00,
2013-03-09 22:41:00,35.9,31.8,30.32,NW,307,0.0,0.0,85,0.00,,,0.00,Wunderground v.1.15,2013-03-10 03:41:00,
2013-03-09 22:42:00,35.8,31.7,30.32,NW,307,0.0,0.0,85,0.00,,,0.00,Wunderground v.1.15,2013-03-10 03:42:00,
2013-03-09 22:43:00,35.6,31.5,30.32,NW,307,0.0,0.0,85,0.00,,,0.00,Wunderground v.1.15,2013-03-10 03:43:00,
2013-03-09 22:46:00,35.5,31.4,30.32,NW,307,0.0,0.0,85,0.00,,,0.00,Wunderground v.1.15,2013-03-10 03:46:00,
2013-03-09 22:48:00,35.3,31.2,30.32,NW,307,0.0,0.0,85,0.00,,,0.00,Wunderground v.1.15,2013-03-10 03:48:00,
2013-03-09 22:50:00,35.3,31.2,30.32,NW,307,0.0,0.0,85,0.00,,,0.00,Wunderground v.1.15,2013-03-10 03:50:00,
2013-03-09 22:52:00,35.2,31.1,30.32,NW,307,0.0,0.0,85,0.00,,,0.00,Wunderground v.1.15,2013-03-10 03:52:00,
2013-03-09 22:55:00,35.0,30.9,30.32,NW,307,0.0,0.0,85,0.00,,,0.00,Wunderground v.1.15,2013-03-10 03:55:00,
2013-03-09 22:56:00,34.9,30.8,30.32,NW,307,0.0,0.0,85,0.00,,,0.00,Wunderground v.1.15,2013-03-10 03:56:00,
2013-03-09 22:59:00,34.7,30.7,30.32,NW,307,0.0,0.0,85,0.00,,,0.00,Wunderground v.1.15,2013-03-10 03:59:00,
2013-03-09 23:02:00,34.6,30.6,30.32,NW,307,0.0,0.0,85,0.00,,,0.00,Wunderground v.1.15,2013-03-10 04:02:00,
2013-03-09 23:03:00,34.6,30.6,30.32,NW,307,0.0,0.0,85,0.00,,,0.00,Wunderground v.1.15,2013-03-10 04:03:00,
2013-03-09 23:04:00,34.4,30.4,30.32,NW,307,0.0,0.0,85,0.00,,,0.00,Wunderground v.1.15,2013-03-10 04:04:00,
2013-03-09 23:06:00,34.4,30.4,30.32,NW,307,0.0,0.0,85,0.00,,,0.00,Wunderground v.1.15,2013-03-10 04:06:00,
2013-03-09 23:10:00,34.1,30.4,30.32,NW,307,0.0,0.0,86,0.00,,,0.00,Wunderground v.1.15,2013-03-10 04:10:00,
2013-03-09 23:11:00,34.1,30.4,30.32,NW,307,0.0,0.0,86,0.00,,,0.00,Wunderground v.1.15,2013-03-10 04:11:00,
2013-03-09 23:15:00,34.0,30.3,30.32,NW,307,0.0,0.0,86,0.00,,,0.00,Wunderground v.1.15,2013-03-10 04:15:00,
2013-03-09 23:16:00,33.8,30.1,30.32,NW,307,0.0,0.0,86,0.00,,,0.00,Wunderground v.1.15,2013-03-10 04:16:00,
2013-03-09 23:18:00,33.8,30.1,30.32,NW,307,0.0,0.0,86,0.00,,,0.00,Wunderground v.1.15,2013-03-10 04:18:00,
2013-03-09 23:20:00,33.7,30.0,30.32,NW,307,0.0,0.0,86,0.00,,,0.00,Wunderground v.1.15,2013-03-10 04:20:00,
2013-03-09 23:21:00,33.5,29.8,30.32,NW,307,0.0,0.0,86,0.00,,,0.00,Wunderground v.1.15,2013-03-10 04:21:00,
2013-03-09 23:26:00,33.4,29.7,30.32,NW,307,0.0,0.0,86,0.00,,,0.00,Wunderground v.1.15,2013-03-10 04:26:00,
2013-03-09 23:27:00,33.2,29.5,30.32,NW,307,0.0,0.0,86,0.00,,,0.00,Wunderground v.1.15,2013-03-10 04:27:00,
2013-03-09 23:28:00,33.2,29.8,30.32,NW,307,0.0,0.0,87,0.00,,,0.00,Wunderground v.1.15,2013-03-10 04:28:00,
2013-03-09 23:29:00,33.2,29.8,30.31,NW,307,0.0,0.0,87,0.00,,,0.00,Wunderground v.1.15,2013-03-10 04:29:00,
2013-03-09 23:33:00,33.1,29.7,30.32,NW,307,0.0,0.0,87,0.00,,,0.00,Wunderground v.1.15,2013-03-10 04:33:00,
2013-03-09 23:34:00,32.9,29.5,30.32,NW,307,0.0,0.0,87,0.00,,,0.00,Wunderground v.1.15,2013-03-10 04:34:00,
2013-03-09 23:35:00,32.9,29.5,30.32,NW,307,0.0,0.0,87,0.00,,,0.00,Wunderground v.1.15,2013-03-10 04:35:00,
2013-03-09 23:36:00,32.9,29.5,30.32,NW,307,0.0,0.0,87,0.00,,,0.00,Wunderground v.1.15,2013-03-10 04:36:00,
2013-03-09 23:38:00,32.8,29.4,30.32,NW,307,0.0,0.0,87,0.00,,,0.00,Wunderground v.1.15,2013-03-10 04:38:00,
2013-03-09 23:41:00,32.8,29.4,30.32,NW,307,0.0,0.0,87,0.00,,,0.00,Wunderground v.1.15,2013-03-10 04:41:00,
2013-03-09 23:43:00,32.7,29.3,30.33,NW,307,0.0,0.0,87,0.00,,,0.00,Wunderground v.1.15,2013-03-10 04:43:00,
2013-03-09 23:44:00,32.7,29.3,30.33,NW,307,0.0,0.0,87,0.00,,,0.00,Wunderground v.1.15,2013-03-10 04:44:00,
2013-03-09 23:45:00,32.7,29.3,30.32,NW,307,0.0,0.0,87,0.00,,,0.00,Wunderground v.1.15,2013-03-10 04:45:00,
2013-03-09 23:47:00,32.5,29.1,30.33,NW,307,0.0,0.0,87,0.00,,,0.00,Wunderground v.1.15,2013-03-10 04:47:00,
2013-03-09 23:49:00,32.5,29.1,30.32,NW,307,0.0,0.0,87,0.00,,,0.00,Wunderground v.1.15,2013-03-10 04:49:00,
2013-03-09 23:52:00,32.4,29.0,30.32,NW,307,0.0,0.0,87,0.00,,,0.00,Wunderground v.1.15,2013-03-10 04:52:00,
2013-03-09 23:53:00,32.4,29.0,30.33,NW,307,0.0,0.0,87,0.00,,,0.00,Wunderground v.1.15,2013-03-10 04:53:00,
2013-03-09 23:55:00,32.4,29.0,30.33,NW,307,0.0,0.0,87,0.00,,,0.00,Wunderground v.1.15,2013-03-10 04:55:00,
2013-03-09 23:58:00,32.2,28.8,30.33,NW,307,0.0,0.0,87,0.00,,,0.00,Wunderground v.1.15,2013-03-10 04:58:00,
2013-03-09 23:59:00,32.2,28.8,30.33,NW,307,0.0,0.0,87,0.00,,,0.00,Wunderground v.1.15,2013-03-10 04:59:00,